FW4143 Weather Reports


time (UTC)temp
F
wind
direction
speed
knots
gust
knots
rain 1hr
in
rain 24hr
in
rain mn
in
humidity
%
barometer
mb
20260508163803 72 151 1.7 4.3 0.00 0.00 0.00 28 1012.9
20260508163703 72 151 1.7 4.3 0.00 0.00 0.00 27 1012.9
20260508163624 72 152 1.7 4.3 0.00 0.00 0.00 27 1012.9
20260508163503 72 152 1.7 4.3 0.00 0.00 0.00 29 1012.9
20260508163403 72 152 1.7 4.3 0.00 0.00 0.00 28 1012.9
20260508163324 72 151 1.7 4.3 0.00 0.00 0.00 29 1013.0
20260508163203 72 151 1.7 4.3 0.00 0.00 0.00 29 1013.0
20260508163124 72 149 1.7 4.3 0.00 0.00 0.00 30 1013.1
20260508163003 72 148 0.9 3.5 0.00 0.00 0.00 30 1013.1
20260508162903 72 147 0.9 3.5 0.00 0.00 0.00 29 1013.1
20260508162803 72 146 0.9 3.5 0.00 0.00 0.00 31 1013.2
20260508162703 72 142 0.9 3.5 0.00 0.00 0.00 30 1013.2
20260508162624 72 141 0.9 3.5 0.00 0.00 0.00 30 1013.2
20260508162524 72 137 0.9 3.5 0.00 0.00 0.00 30 1013.2
20260508162424 72 137 0.9 3.5 0.00 0.00 0.00 31 1013.2
20260508162306 72 132 0.9 3.5 0.00 0.00 0.00 29 1013.2
20260508162224 72 128 0.9 3.5 0.00 0.00 0.00 27 1013.2
20260508162103 72 124 0.9 1.7 0.00 0.00 0.00 28 1013.3
20260508162003 72 124 0.9 1.7 0.00 0.00 0.00 28 1013.3
20260508161903 72 124 0.9 1.7 0.00 0.00 0.00 28 1013.3
20260508161803 72 124 0.9 1.7 0.00 0.00 0.00 27 1013.3
20260508161704 72 124 0.9 1.7 0.00 0.00 0.00 29 1013.3
20260508161604 72 124 0.9 1.7 0.00 0.00 0.00 29 1013.3
20260508161503 72 123 0.9 2.6 0.00 0.00 0.00 29 1013.3
20260508161424 72 122 0.9 2.6 0.00 0.00 0.00 30 1013.3
20260508161303 72 120 0.9 2.6 0.00 0.00 0.00 29 1013.3
20260508161203 72 118 0.9 2.6 0.00 0.00 0.00 28 1013.3
20260508161124 72 118 0.9 2.6 0.00 0.00 0.00 27 1013.3
20260508161003 72 116 1.7 2.6 0.00 0.00 0.00 30 1013.4
20260508160903 72 115 1.7 2.6 0.00 0.00 0.00 31 1013.4
20260508160803 72 113 1.7 2.6 0.00 0.00 0.00 31 1013.4
20260508160703 72 112 1.7 2.6 0.00 0.00 0.00 31 1013.4
20260508160603 72 111 0.9 2.6 0.00 0.00 0.00 31 1013.4
20260508160503 72 109 0.9 2.6 0.00 0.00 0.00 30 1013.4
20260508160403 72 109 0.9 2.6 0.00 0.00 0.00 30 1013.5
20260508160324 72 110 0.9 2.6 0.00 0.00 0.00 30 1013.5
20260508160203 72 111 0.9 2.6 0.00 0.00 0.00 28 1013.5
20260508160103 72 113 0.9 2.6 0.00 0.00 0.00 29 1013.5
20260508160003 72 116 0.9 2.6 0.00 0.00 0.00 29 1013.5
20260508155924 72 119 0.9 2.6 0.00 0.00 0.00 29 1013.5
20260508155803 72 128 0.9 2.6 0.00 0.00 0.00 29 1013.5
20260508155703 72 132 1.7 3.5 0.00 0.00 0.00 29 1013.5
20260508155603 72 143 1.7 3.5 0.00 0.00 0.00 28 1013.5
20260508155524 72 144 1.7 3.5 0.00 0.00 0.00 28 1013.5
20260508155424 72 151 1.7 3.5 0.00 0.00 0.00 31 1013.5
20260508155306 72 161 0.9 3.5 0.00 0.00 0.00 28 1013.5
20260508155203 72 169 0.9 3.5 0.00 0.00 0.00 31 1013.5
20260508155103 72 175 0.9 3.5 0.00 0.00 0.00 33 1013.4
20260508155003 72 183 0.9 3.5 0.00 0.00 0.00 33 1013.4
20260508154903 72 190 0.9 3.5 0.00 0.00 0.00 32 1013.4
20260508154803 73 199 0.9 3.5 0.00 0.00 0.00 31 1013.3
20260508154703 73 215 0.9 3.5 0.00 0.00 0.00 30 1013.3
20260508154603 73 217 0.9 1.7 0.00 0.00 0.00 29 1013.3
20260508154503 72 217 0.9 1.7 0.00 0.00 0.00 29 1013.3
20260508154424 72 217 0.9 1.7 0.00 0.00 0.00 26 1013.4
20260508154324 72 217 0.9 1.7 0.00 0.00 0.00 25 1013.4
20260508154203 72 217 0.9 1.7 0.00 0.00 0.00 23 1013.4
20260508154103 71 217 0.9 1.7 0.00 0.00 0.00 22 1013.5
20260508154003 71 217 0.0 1.7 0.00 0.00 0.00 22 1013.4
20260508153924 71 217 0.0 1.7 0.00 0.00 0.00 23 1013.4
20260508153803 71 217 0.0 1.7 0.00 0.00 0.00 19 1013.5
20260508153703 71 217 0.0 1.7 0.00 0.00 0.00 17 1013.5
20260508153603 70 0 0.0 0.9 0.00 0.00 0.00 15 1013.5
20260508153503 70 0 0.0 0.0 0.00 0.00 0.00 17 1013.5
20260508153403 70 0 0.0 0.0 0.00 0.00 0.00 19 1013.5
20260508153324 70 0 0.0 0.0 0.00 0.00 0.00 17 1013.5
20260508153203 70 0 0.0 0.0 0.00 0.00 0.00 14 1013.5
20260508153103 70 0 0.0 0.0 0.00 0.00 0.00 15 1013.5
20260508153003 70 0 0.0 0.0 0.00 0.00 0.00 15 1013.4
20260508152924 70 0 0.0 0.0 0.00 0.00 0.00 13 1013.5
20260508152803 69 0 0.0 0.0 0.00 0.00 0.00 12 1013.4
20260508152703 69 0 0.0 0.0 0.00 0.00 0.00 18 1013.5
20260508152603 69 0 0.0 0.0 0.00 0.00 0.00 16 1013.5
20260508152503 69 0 0.0 0.0 0.00 0.00 0.00 16 1013.5
20260508152403 69 0 0.0 0.0 0.00 0.00 0.00 16 1013.5
20260508152306 69 0 0.0 0.0 0.00 0.00 0.00 16 1013.6
20260508152203 69 0 0.0 0.0 0.00 0.00 0.00 16 1013.5
20260508152124 69 0 0.0 0.0 0.00 0.00 0.00 15 1013.6
20260508152003 69 0 0.0 0.0 0.00 0.00 0.00 15 1013.6
20260508151903 69 0 0.0 0.0 0.00 0.00 0.00 13 1013.6
20260508151803 69 0 0.0 0.0 0.00 0.00 0.00 13 1013.6
20260508151703 69 0 0.0 0.0 0.00 0.00 0.00 12 1013.6
20260508151603 69 0 0.0 0.0 0.00 0.00 0.00 11 1013.6
20260508151503 68 222 0.0 1.7 0.00 0.00 0.00 13 1013.6
20260508151403 68 222 0.0 1.7 0.00 0.00 0.00 14 1013.6
20260508151303 68 223 0.9 2.6 0.00 0.00 0.00 13 1013.7
20260508151203 68 223 0.9 2.6 0.00 0.00 0.00 14 1013.7
20260508151124 68 223 0.9 2.6 0.00 0.00 0.00 13 1013.7
20260508151003 68 224 0.9 2.6 0.00 0.00 0.00 13 1013.8
20260508150924 68 224 0.9 2.6 0.00 0.00 0.00 12 1013.8
20260508150804 68 225 0.9 3.5 0.00 0.00 0.00 11 1013.8
20260508150703 68 225 0.9 3.5 0.00 0.00 0.00 10 1013.8
20260508150603 68 225 1.7 3.5 0.00 0.00 0.00 9 1013.8
20260508150503 68 225 0.9 3.5 0.00 0.00 0.00 8 1013.6
20260508150403 68 225 1.7 3.5 0.00 0.00 0.00 8 1013.7
20260508150303 68 226 1.7 3.5 0.00 0.00 0.00 6 1013.7
20260508150203 68 226 1.7 3.5 0.00 0.00 0.00 9 1013.7
20260508150103 68 226 1.7 3.5 0.00 0.00 0.00 10 1013.7
20260508150004 68 226 1.7 3.5 0.00 0.00 0.00 11 1013.8
20260508145903 68 226 1.7 3.5 0.00 0.00 0.00 11 1013.8
20260508145803 68 226 0.9 2.6 0.00 0.00 0.00 12 1013.8
20260508145703 68 226 0.9 3.5 0.00 0.00 0.00 12 1013.8
20260508145604 68 226 1.7 3.5 0.00 0.00 0.00 12 1013.8
20260508145503 68 227 1.7 3.5 0.00 0.00 0.00 12 1013.9
20260508145403 68 227 1.7 3.5 0.00 0.00 0.00 8 1013.8
20260508145306 68 228 1.7 3.5 0.00 0.00 0.00 6 1013.8
20260508145203 68 229 1.7 3.5 0.00 0.00 0.00 6 1013.6
20260508145103 67 230 1.7 3.5 0.00 0.00 0.00 5 1013.6
20260508145003 67 231 1.7 3.5 0.00 0.00 0.00 4 1013.6
20260508144903 67 233 1.7 3.5 0.00 0.00 0.00 6 1013.6
20260508144803 67 234 1.7 4.3 0.00 0.00 0.00 8 1013.5
20260508144724 67 236 1.7 4.3 0.00 0.00 0.00 7 1013.6
20260508144603 67 238 1.7 4.3 0.00 0.00 0.00 5 1013.6
20260508144503 67 241 1.7 4.3 0.00 0.00 0.00 5 1013.6
20260508144424 67 242 1.7 4.3 0.00 0.00 0.00 5 1013.5
20260508144303 67 243 1.7 4.3 0.00 0.00 0.00 6 1013.6
20260508144203 67 245 1.7 4.3 0.00 0.00 0.00 4 1013.5
20260508144124 67 246 1.7 4.3 0.00 0.00 0.00 5 1013.5
20260508144024 67 247 1.7 4.3 0.00 0.00 0.00 2 1013.5
20260508143903 67 250 1.7 4.3 0.00 0.00 0.00 1 1013.5
20260508143803 67 250 1.7 4.3 0.00 0.00 0.00 1 1013.4
20260508143703 66 250 1.7 4.3 0.00 0.00 0.00 1 1013.4
20260508143624 66 250 1.7 4.3 0.00 0.00 0.00 1 1013.4
20260508143503 66 250 2.6 4.3 0.00 0.00 0.00 1 1013.4
20260508143403 66 251 2.6 4.3 0.00 0.00 0.00 1 1013.5
20260508143303 66 251 2.6 4.3 0.00 0.00 0.00 1 1013.5
20260508143203 66 252 2.6 4.3 0.00 0.00 0.00 1 1013.5
20260508143103 66 253 1.7 4.3 0.00 0.00 0.00 1 1013.6
20260508143003 66 254 1.7 4.3 0.00 0.00 0.00 1 1013.6
20260508142903 66 256 1.7 4.3 0.00 0.00 0.00 1 1013.6
20260508142803 66 257 1.7 4.3 0.00 0.00 0.00 1 1013.6
20260508142703 66 259 1.7 4.3 0.00 0.00 0.00 1 1013.6
20260508142603 66 261 1.7 4.3 0.00 0.00 0.00 1 1013.6
20260508142524 66 264 1.7 3.5 0.00 0.00 0.00 1 1013.6
20260508142404 66 267 1.7 3.5 0.00 0.00 0.00 1 1013.7
20260508142306 66 266 1.7 4.3 0.00 0.00 0.00 1 1013.7
20260508142203 66 259 1.7 4.3 0.00 0.00 0.00 1 1013.8
20260508142103 66 256 1.7 4.3 0.00 0.00 0.00 1 1013.8
20260508142003 66 251 1.7 4.3 0.00 0.00 0.00 1 1013.8
20260508141903 66 246 1.7 4.3 0.00 0.00 0.00 1 1013.8
20260508141803 66 241 1.7 4.3 0.00 0.00 0.00 1 1013.8
20260508141703 66 234 1.7 4.3 0.00 0.00 0.00 1 1013.8
20260508141603 66 229 1.7 4.3 0.00 0.00 0.00 1 1013.8
20260508141503 65 225 1.7 4.3 0.00 0.00 0.00 1 1013.8
20260508141403 65 220 1.7 4.3 0.00 0.00 0.00 1 1013.9
20260508141303 65 214 1.7 3.5 0.00 0.00 0.00 1 1013.9
20260508141203 65 214 1.7 3.5 0.00 0.00 0.00 1 1013.9
20260508141124 65 214 1.7 3.5 0.00 0.00 0.00 1 1013.8
20260508141024 65 214 1.7 3.5 0.00 0.00 0.00 1 1013.9
20260508140903 65 214 1.7 3.5 0.00 0.00 0.00 1 1013.8
20260508140824 65 214 1.7 3.5 0.00 0.00 0.00 1 1013.9
20260508140703 65 214 1.7 3.5 0.00 0.00 0.00 1 1013.8
20260508140603 65 214 1.7 3.5 0.00 0.00 0.00 1 1013.8
20260508140503 65 212 1.7 3.5 0.00 0.00 0.00 1 1013.9
20260508140403 65 209 1.7 3.5 0.00 0.00 0.00 1 1013.9
20260508140303 65 208 1.7 3.5 0.00 0.00 0.00 1 1013.9
20260508140203 65 205 1.7 3.5 0.00 0.00 0.00 1 1013.8
20260508140103 65 203 0.9 3.5 0.00 0.00 0.00 1 1013.8
20260508140004 65 202 1.7 3.5 0.00 0.00 0.00 1 1013.8
20260508135903 65 199 1.7 3.5 0.00 0.00 0.00 1 1013.9
20260508135803 65 198 1.7 3.5 0.00 0.00 0.00 1 1013.9
20260508135703 65 196 1.7 3.5 0.00 0.00 0.00 1 1013.9
20260508135603 65 193 1.7 3.5 0.00 0.00 0.00 1 1014.0
20260508135503 65 191 0.9 2.6 0.00 0.00 0.00 1 1014.1
20260508135403 65 191 0.9 2.6 0.00 0.00 0.00 1 1014.1
20260508135306 65 191 0.9 2.6 0.00 0.00 0.00 1 1014.1
20260508135224 65 191 1.7 2.6 0.00 0.00 0.00 1 1014.1
20260508135103 65 191 1.7 2.6 0.00 0.00 0.00 1 1014.2
20260508135003 64 191 1.7 3.5 0.00 0.00 0.00 1 1014.2
20260508134903 65 191 1.7 3.5 0.00 0.00 0.00 1 1014.2
20260508134803 65 191 1.7 3.5 0.00 0.00 0.00 1 1014.2
20260508134703 65 191 1.7 3.5 0.00 0.00 0.00 1 1014.2
20260508134603 65 191 1.7 3.5 0.00 0.00 0.00 1 1014.2
20260508134524 65 191 1.7 3.5 0.00 0.00 0.00 1 1014.2
20260508134403 64 191 1.7 3.5 0.00 0.00 0.00 1 1014.2
20260508134303 64 191 1.7 3.5 0.00 0.00 0.00 1 1014.2
20260508134203 64 189 1.7 4.3 0.00 0.00 0.00 1 1014.2
20260508134103 64 186 1.7 4.3 0.00 0.00 0.00 1 1014.2
20260508134003 64 184 1.7 4.3 0.00 0.00 0.00 1 1014.2
20260508133903 64 181 1.7 4.3 0.00 0.00 0.00 1 1014.2
20260508133824 64 179 1.7 4.3 0.00 0.00 0.00 1 1014.1
20260508133703 64 177 1.7 4.3 0.00 0.00 0.00 1 1014.1
20260508133624 64 176 1.7 4.3 0.00 0.00 0.00 1 1014.1
20260508133524 64 174 1.7 4.3 0.00 0.00 0.00 1 1014.2
20260508133403 64 171 1.7 4.3 0.00 0.00 0.00 1 1014.2
20260508133303 64 168 1.7 4.3 0.00 0.00 0.00 1 1014.2
20260508133203 64 165 1.7 3.5 0.00 0.00 0.00 1 1014.2
20260508133103 64 165 1.7 3.5 0.00 0.00 0.00 1 1014.2
20260508133003 64 164 1.7 3.5 0.00 0.00 0.00 1 1014.2
20260508132903 64 164 1.7 3.5 0.00 0.00 0.00 1 1014.2
20260508132803 64 163 1.7 3.5 0.00 0.00 0.00 1 1014.1
20260508132703 64 163 1.7 3.5 0.00 0.00 0.00 1 1014.1
20260508132603 64 162 1.7 3.5 0.00 0.00 0.00 1 1014.1
20260508132524 64 162 1.7 3.5 0.00 0.00 0.00 1 1014.1
20260508132403 64 161 1.7 3.5 0.00 0.00 0.00 1 1014.0
20260508132306 64 161 1.7 3.5 0.00 0.00 0.00 1 1014.0
20260508132203 64 160 1.7 3.5 0.00 0.00 0.00 1 1014.1
20260508132103 64 159 1.7 3.5 0.00 0.00 0.00 1 1014.0
20260508132003 64 159 1.7 3.5 0.00 0.00 0.00 1 1014.0
20260508131924 64 158 1.7 3.5 0.00 0.00 0.00 1 1014.0
20260508131803 64 158 1.7 3.5 0.00 0.00 0.00 1 1014.0
20260508131703 64 158 1.7 3.5 0.00 0.00 0.00 1 1014.0
20260508131624 64 158 1.7 3.5 0.00 0.00 0.00 1 1014.1
20260508131503 64 159 0.9 2.6 0.00 0.00 0.00 1 1014.1
20260508131403 64 161 1.7 3.5 0.00 0.00 0.00 1 1014.1
20260508131303 64 162 1.7 3.5 0.00 0.00 0.00 1 1014.1
20260508131203 64 163 1.7 3.5 0.00 0.00 0.00 1 1014.1
20260508131103 64 164 1.7 3.5 0.00 0.00 0.00 1 1014.1
20260508131003 63 164 1.7 3.5 0.00 0.00 0.00 1 1014.1
20260508130903 63 166 1.7 4.3 0.00 0.00 0.00 1 1014.1
20260508130803 63 167 1.7 4.3 0.00 0.00 0.00 1 1014.1
20260508130703 63 170 1.7 5.2 0.00 0.00 0.00 1 1014.0
20260508130624 63 169 1.7 5.2 0.00 0.00 0.00 1 1014.0
20260508130503 63 167 1.7 5.2 0.00 0.00 0.00 1 1014.0
20260508130403 63 165 1.7 5.2 0.00 0.00 0.00 1 1013.9
20260508130303 63 168 1.7 5.2 0.00 0.00 0.00 1 1013.9
20260508130203 63 170 1.7 5.2 0.00 0.00 0.00 1 1013.9
20260508130103 63 172 2.6 5.2 0.00 0.00 0.00 1 1013.9
20260508130003 63 174 2.6 5.2 0.00 0.00 0.00 1 1013.9
20260508125903 63 175 1.7 5.2 0.00 0.00 0.00 1 1013.9
20260508125824 63 175 1.7 5.2 0.00 0.00 0.00 1 1014.0
20260508125703 63 174 1.7 5.2 0.00 0.00 0.00 1 1014.0
20260508125624 63 176 1.7 5.2 0.00 0.00 0.00 1 1014.1
20260508125503 63 178 1.7 5.2 0.00 0.00 0.00 1 1014.1
20260508125403 63 180 1.7 5.2 0.00 0.00 0.00 1 1014.1
20260508125306 63 178 1.7 5.2 0.00 0.00 0.00 1 1014.2
20260508125224 63 177 1.7 5.2 0.00 0.00 0.00 1 1014.2
20260508125103 63 178 1.7 5.2 0.00 0.00 0.00 1 1014.2
20260508125024 63 177 1.7 5.2 0.00 0.00 0.00 1 1014.2
20260508124903 63 176 1.7 5.2 0.00 0.00 0.00 1 1014.2
20260508124803 63 178 2.6 5.2 0.00 0.00 0.00 1 1014.2
20260508124703 63 176 2.6 5.2 0.00 0.00 0.00 1 1014.2
20260508124603 63 173 2.6 5.2 0.00 0.00 0.00 1 1014.2
20260508124503 63 171 2.6 5.2 0.00 0.00 0.00 1 1014.2
20260508124403 63 168 2.6 5.2 0.00 0.00 0.00 1 1014.1
20260508124303 63 166 2.6 5.2 0.00 0.00 0.00 1 1014.1
20260508124203 63 164 2.6 5.2 0.00 0.00 0.00 1 1014.1
20260508124103 63 161 2.6 5.2 0.00 0.00 0.00 1 1014.1
20260508124024 63 158 2.6 5.2 0.00 0.00 0.00 1 1014.1
20260508123903 63 154 2.6 5.2 0.00 0.00 0.00 1 1014.1
20260508123803 63 148 1.7 4.3 0.00 0.00 0.00 1 1014.2
20260508123703 63 146 1.7 4.3 0.00 0.00 0.00 1 1014.3
20260508123603 63 147 1.7 4.3 0.00 0.00 0.00 1 1014.3
20260508123524 63 146 1.7 4.3 0.00 0.00 0.00 1 1014.3
20260508123403 63 145 1.7 2.6 0.00 0.00 0.00 1 1014.3
20260508123303 63 146 1.7 2.6 0.00 0.00 0.00 1 1014.3
20260508123224 63 147 1.7 2.6 0.00 0.00 0.00 1 1014.3
20260508123103 63 149 1.7 2.6 0.00 0.00 0.00 1 1014.4
20260508123025 63 149 1.7 2.6 0.00 0.00 0.00 1 1014.4
20260508122903 63 150 1.7 2.6 0.00 0.00 0.00 1 1014.3
20260508122803 63 151 1.7 2.6 0.00 0.00 0.00 1 1014.3
20260508122703 63 151 1.7 2.6 0.00 0.00 0.00 1 1014.3
20260508122604 63 152 1.7 2.6 0.00 0.00 0.00 1 1014.2
20260508122503 63 152 1.7 2.6 0.00 0.00 0.00 1 1014.2
20260508122403 63 151 1.7 2.6 0.00 0.00 0.00 1 1014.2
20260508122306 63 151 1.7 2.6 0.00 0.00 0.00 1 1014.3
20260508122224 63 151 1.7 2.6 0.00 0.00 0.00 1 1014.3
20260508122103 63 151 1.7 3.5 0.00 0.00 0.00 1 1014.3
20260508122003 63 150 1.7 3.5 0.00 0.00 0.00 1 1014.3
20260508121903 63 150 1.7 3.5 0.00 0.00 0.00 1 1014.3
20260508121803 63 149 1.7 3.5 0.00 0.00 0.00 1 1014.3
20260508121703 63 148 1.7 3.5 0.00 0.00 0.00 1 1014.3
20260508121603 63 148 1.7 3.5 0.00 0.00 0.00 1 1014.4
20260508121503 63 147 1.7 3.5 0.00 0.00 0.00 1 1014.4
20260508121424 63 146 1.7 5.2 0.00 0.00 0.00 1 1014.4
20260508121304 63 149 1.7 5.2 0.00 0.00 0.00 1 1014.4
20260508121203 63 152 1.7 5.2 0.00 0.00 0.00 1 1014.5
20260508121103 63 152 1.7 5.2 0.00 0.00 0.00 1 1014.5
20260508121003 63 153 1.7 5.2 0.00 0.00 0.00 1 1014.5
20260508120903 63 155 2.6 5.2 0.00 0.00 0.00 1 1014.5
20260508120803 63 156 2.6 5.2 0.00 0.00 0.00 1 1014.5
20260508120703 63 157 2.6 5.2 0.00 0.00 0.00 1 1014.5
20260508120603 63 158 2.6 5.2 0.00 0.00 0.00 1 1014.5
20260508120503 63 159 2.6 5.2 0.00 0.00 0.00 1 1014.5
20260508120403 63 159 2.6 4.3 0.00 0.00 0.00 1 1014.6
20260508120303 63 157 2.6 4.3 0.00 0.00 0.00 1 1014.6
20260508120203 63 154 2.6 4.3 0.00 0.00 0.00 1 1014.6
20260508120103 63 153 2.6 4.3 0.00 0.00 0.00 1 1014.6
20260508120003 63 154 2.6 4.3 0.00 0.00 0.00 1 1014.6
20260508115903 63 154 2.6 4.3 0.00 0.00 0.00 1 1014.6
20260508115803 63 155 2.6 4.3 0.00 0.00 0.00 1 1014.6
20260508115703 63 156 2.6 4.3 0.00 0.00 0.00 1 1014.6
20260508115603 63 158 2.6 6.1 0.00 0.00 0.00 1 1014.6
20260508115503 63 158 2.6 6.1 0.00 0.00 0.00 1 1014.7
20260508115424 63 159 2.6 6.1 0.00 0.00 0.00 1 1014.7
20260508115306 63 161 2.6 6.1 0.00 0.00 0.00 1 1014.7
20260508115203 63 163 2.6 6.1 0.00 0.00 0.00 1 1014.8
20260508115103 63 163 2.6 6.1 0.00 0.00 0.00 1 1014.8
20260508115003 63 163 2.6 6.1 0.00 0.00 0.00 1 1014.8
20260508114903 63 164 3.5 6.1 0.00 0.00 0.00 1 1014.8
20260508114803 63 163 2.6 6.1 0.00 0.00 0.00 2 1014.9
20260508114724 63 162 2.6 6.1 0.00 0.00 0.00 2 1014.9
20260508114603 63 161 2.6 5.2 0.00 0.00 0.00 1 1014.9
20260508114503 63 163 2.6 5.2 0.00 0.00 0.00 1 1014.9
20260508114424 63 163 2.6 5.2 0.00 0.00 0.00 1 1014.8
20260508114303 63 161 2.6 5.2 0.00 0.00 0.00 2 1014.8
20260508114203 63 161 2.6 5.2 0.00 0.00 0.00 2 1014.9
20260508114103 63 162 2.6 5.2 0.00 0.00 0.00 2 1014.8
20260508114003 63 164 2.6 5.2 0.00 0.00 0.00 3 1014.9
20260508113903 63 161 2.6 5.2 0.00 0.00 0.00 2 1014.8
20260508113824 63 161 2.6 5.2 0.00 0.00 0.00 2 1014.8
20260508113703 63 161 2.6 6.1 0.00 0.00 0.00 3 1014.8
20260508113624 63 160 2.6 6.1 0.00 0.00 0.00 3 1014.8
20260508113524 63 159 2.6 6.1 0.00 0.00 0.00 3 1014.8
20260508113403 63 160 2.6 6.1 0.00 0.00 0.00 3 1014.9
20260508113303 63 159 2.6 6.1 0.00 0.00 0.00 3 1014.8
20260508113203 63 157 2.6 6.1 0.00 0.00 0.00 3 1014.9
20260508113124 63 156 2.6 6.1 0.00 0.00 0.00 3 1014.8
20260508113004 63 155 2.6 6.1 0.00 0.00 0.00 3 1014.8
20260508112903 63 158 2.6 6.1 0.00 0.00 0.00 3 1014.8
20260508112803 63 160 3.5 6.1 0.00 0.00 0.00 3 1014.7
20260508112703 63 161 3.5 6.1 0.00 0.00 0.00 3 1014.7
20260508112603 63 160 2.6 6.1 0.00 0.00 0.00 3 1014.7
20260508112524 63 158 2.6 6.1 0.00 0.00 0.00 3 1014.7
20260508112403 63 156 2.6 6.1 0.00 0.00 0.00 2 1014.6
20260508112306 63 156 2.6 6.1 0.00 0.00 0.00 2 1014.7
20260508112203 63 156 2.6 6.1 0.00 0.00 0.00 3 1014.6
20260508112104 63 159 2.6 6.1 0.00 0.00 0.00 4 1014.6
20260508112003 63 159 2.6 6.1 0.00 0.00 0.00 4 1014.6
20260508111903 63 158 2.6 6.1 0.00 0.00 0.00 4 1014.6
20260508111803 63 157 2.6 6.1 0.00 0.00 0.00 3 1014.7
20260508111724 63 158 2.6 4.3 0.00 0.00 0.00 3 1014.6
20260508111604 63 163 2.6 4.3 0.00 0.00 0.00 3 1014.7
20260508111504 63 167 2.6 5.2 0.00 0.00 0.00 3 1014.6
20260508111404 63 171 2.6 5.2 0.00 0.00 0.00 3 1014.6
20260508111304 63 172 2.6 5.2 0.00 0.00 0.00 4 1014.6
20260508111205 63 175 2.6 5.2 0.00 0.00 0.00 3 1014.5
20260508111105 63 175 2.6 5.2 0.00 0.00 0.00 4 1014.5
20260508111025 63 176 2.6 5.2 0.00 0.00 0.00 4 1014.4
20260508110925 63 176 2.6 5.2 0.00 0.00 0.00 3 1014.4
20260508110804 63 177 2.6 5.2 0.00 0.00 0.00 4 1014.3
20260508110704 63 175 2.6 5.2 0.00 0.00 0.00 5 1014.3
20260508110604 63 173 2.6 5.2 0.00 0.00 0.00 5 1014.3
20260508110505 63 173 2.6 4.3 0.00 0.00 0.00 4 1014.3
20260508110404 63 170 1.7 3.5 0.00 0.00 0.00 4 1014.3
20260508110304 63 172 1.7 3.5 0.00 0.00 0.00 4 1014.3
20260508110204 63 173 1.7 3.5 0.00 0.00 0.00 5 1014.4
20260508110104 63 174 2.6 4.3 0.00 0.00 0.00 5 1014.4
20260508110025 63 173 2.6 5.2 0.00 0.00 0.00 5 1014.4
20260508105904 63 172 2.6 7.0 0.00 0.00 0.00 6 1014.4
20260508105804 63 171 2.6 7.0 0.00 0.00 0.00 6 1014.4
20260508105704 63 172 2.6 7.0 0.00 0.00 0.00 5 1014.5
20260508105604 63 171 2.6 7.0 0.00 0.00 0.00 6 1014.5
20260508105504 63 167 2.6 7.0 0.00 0.00 0.00 5 1014.5
20260508105404 63 166 2.6 7.0 0.00 0.00 0.00 6 1014.4
20260508105325 63 167 3.5 7.0 0.00 0.00 0.00 6 1014.5
20260508105225 63 167 3.5 7.0 0.00 0.00 0.00 7 1014.4
20260508105104 63 166 3.5 7.0 0.00 0.00 0.00 6 1014.4
20260508105004 63 165 3.5 7.0 0.00 0.00 0.00 7 1014.4
20260508104904 63 166 3.5 7.0 0.00 0.00 0.00 6 1014.4
20260508104804 63 164 3.5 7.0 0.00 0.00 0.00 7 1014.4
20260508104705 63 164 2.6 7.0 0.00 0.00 0.00 6 1014.5
20260508104605 63 166 2.6 7.0 0.00 0.00 0.00 6 1014.4
20260508104504 63 169 2.6 7.0 0.00 0.00 0.00 7 1014.5
20260508104405 63 168 2.6 7.0 0.00 0.00 0.00 7 1014.4
20260508104325 63 167 2.6 7.0 0.00 0.00 0.00 7 1014.4
20260508104204 63 165 2.6 7.0 0.00 0.00 0.00 8 1014.3
20260508104104 63 166 3.5 7.0 0.00 0.00 0.00 7 1014.3
20260508104004 63 168 3.5 7.0 0.00 0.00 0.00 7 1014.3
20260508103904 63 168 3.5 7.0 0.00 0.00 0.00 7 1014.3
20260508103804 63 172 3.5 7.0 0.00 0.00 0.00 7 1014.2
20260508103704 63 170 3.5 7.0 0.00 0.00 0.00 7 1014.3
20260508103604 63 170 3.5 7.0 0.00 0.00 0.00 7 1014.2
20260508103526 63 167 3.5 7.0 0.00 0.00 0.00 7 1014.2
20260508103404 63 168 3.5 7.0 0.00 0.00 0.00 7 1014.3
20260508103326 63 167 3.5 7.0 0.00 0.00 0.00 8 1014.3
20260508103204 63 167 3.5 7.0 0.00 0.00 0.00 8 1014.3
20260508103104 63 167 3.5 7.0 0.00 0.00 0.00 8 1014.3
20260508103004 63 166 3.5 7.0 0.00 0.00 0.00 8 1014.3
20260508102904 63 164 3.5 7.0 0.00 0.00 0.00 8 1014.3
20260508102804 63 163 3.5 7.0 0.00 0.00 0.00 8 1014.4
20260508102704 63 164 3.5 7.0 0.00 0.00 0.00 8 1014.3
20260508102625 63 163 3.5 7.0 0.00 0.00 0.00 7 1014.4
20260508102504 63 164 4.3 7.8 0.00 0.00 0.00 7 1014.4
20260508102404 63 165 4.3 7.8 0.00 0.00 0.00 7 1014.4
20260508102306 63 166 4.3 7.8 0.00 0.00 0.00 8 1014.4
20260508102226 63 166 4.3 7.8 0.00 0.00 0.00 8 1014.4
20260508102104 63 167 4.3 7.8 0.00 0.00 0.00 8 1014.5
20260508102026 63 167 4.3 7.8 0.00 0.00 0.00 8 1014.5
20260508101904 63 167 3.5 7.8 0.00 0.00 0.00 8 1014.6
20260508101804 63 168 4.3 7.8 0.00 0.00 0.00 8 1014.6
20260508101725 63 167 3.5 7.8 0.00 0.00 0.00 8 1014.6
20260508101604 63 168 3.5 7.8 0.00 0.00 0.00 8 1014.6
20260508101504 63 169 3.5 7.0 0.00 0.00 0.00 8 1014.7
20260508101425 63 166 3.5 7.8 0.00 0.00 0.00 9 1014.7
20260508101304 63 166 4.3 7.8 0.00 0.00 0.00 9 1014.7
20260508101204 63 165 4.3 7.8 0.00 0.00 0.00 9 1014.8
20260508101104 63 164 4.3 7.8 0.00 0.00 0.00 10 1014.8
20260508101026 63 164 4.3 7.8 0.00 0.00 0.00 10 1014.8
20260508100904 63 165 4.3 7.8 0.00 0.00 0.00 10 1014.8
20260508100804 63 163 4.3 7.8 0.00 0.00 0.00 10 1014.8
20260508100704 63 163 4.3 7.8 0.00 0.00 0.00 11 1014.9
20260508100604 63 162 3.5 7.8 0.00 0.00 0.00 11 1014.9
20260508100504 63 159 3.5 7.8 0.00 0.00 0.00 11 1014.9
20260508100404 63 159 3.5 7.0 0.00 0.00 0.00 11 1014.8
20260508100304 63 158 3.5 7.0 0.00 0.00 0.00 11 1014.8
20260508100204 63 156 3.5 7.0 0.00 0.00 0.00 11 1014.7
20260508100104 63 154 2.6 6.1 0.00 0.00 0.00 11 1014.6
20260508100004 63 152 2.6 6.1 0.00 0.00 0.00 11 1014.6
20260508095925 63 149 2.6 5.2 0.00 0.00 0.00 10 1014.7
20260508095804 63 147 2.6 4.3 0.00 0.00 0.00 11 1014.8
20260508095704 63 145 1.7 4.3 0.00 0.00 0.00 10 1014.9
20260508095625 63 144 2.6 4.3 0.00 0.00 0.00 11 1014.9
20260508095504 63 145 2.6 4.3 0.00 0.00 0.00 11 1015.0
20260508095404 63 146 2.6 4.3 0.00 0.00 0.00 10 1014.9
20260508095306 63 146 1.7 4.3 0.00 0.00 0.00 10 1015.0
20260508095204 63 146 1.7 4.3 0.00 0.00 0.00 9 1015.0
20260508095104 63 146 1.7 4.3 0.00 0.00 0.00 9 1015.0
20260508095004 63 146 1.7 4.3 0.00 0.00 0.00 9 1015.0
20260508094905 63 146 1.7 4.3 0.00 0.00 0.00 9 1015.0
20260508094804 63 146 1.7 4.3 0.00 0.00 0.00 10 1015.0
20260508094725 63 146 1.7 4.3 0.00 0.00 0.00 9 1015.0
20260508094604 63 147 1.7 4.3 0.00 0.00 0.00 10 1015.0
20260508094525 63 146 1.7 4.3 0.00 0.00 0.00 10 1015.0
20260508094404 63 145 0.9 3.5 0.00 0.00 0.00 9 1015.0
20260508094326 63 145 0.9 3.5 0.00 0.00 0.00 9 1015.0
20260508094204 63 144 0.9 3.5 0.00 0.00 0.00 9 1015.0
20260508094104 63 144 0.9 3.5 0.00 0.00 0.00 10 1015.0
20260508094005 63 144 0.9 3.5 0.00 0.00 0.00 9 1015.0
20260508093904 63 144 1.7 3.5 0.00 0.00 0.00 9 1015.0
20260508093804 63 145 1.7 3.5 0.00 0.00 0.00 9 1015.0
20260508093725 63 145 1.7 3.5 0.00 0.00 0.00 9 1015.0
20260508093625 63 145 1.7 3.5 0.00 0.00 0.00 9 1015.0
20260508093504 63 146 1.7 3.5 0.00 0.00 0.00 8 1014.9
20260508093404 63 147 1.7 3.5 0.00 0.00 0.00 8 1014.9
20260508093304 63 147 1.7 3.5 0.00 0.00 0.00 8 1014.9
20260508093204 63 148 1.7 3.5 0.00 0.00 0.00 8 1015.0
20260508093125 63 148 1.7 3.5 0.00 0.00 0.00 9 1015.0
20260508093004 63 149 1.7 3.5 0.00 0.00 0.00 9 1014.9
20260508092925 63 149 1.7 3.5 0.00 0.00 0.00 8 1014.9
20260508092804 63 149 1.7 3.5 0.00 0.00 0.00 8 1014.8
20260508092725 63 150 1.7 3.5 0.00 0.00 0.00 8 1014.8
20260508092605 63 150 1.7 3.5 0.00 0.00 0.00 8 1014.8
20260508092504 63 151 1.7 3.5 0.00 0.00 0.00 8 1014.8
20260508092404 63 152 1.7 3.5 0.00 0.00 0.00 8 1014.8
20260508092312 63 153 1.7 3.5 0.00 0.00 0.00 8 1014.8
20260508092225 63 154 1.7 3.5 0.00 0.00 0.00 8 1014.8
20260508092104 63 155 1.7 3.5 0.00 0.00 0.00 7 1014.6
20260508092005 63 155 1.7 3.5 0.00 0.00 0.00 8 1014.6
20260508091925 63 156 1.7 3.5 0.00 0.00 0.00 8 1014.5
20260508091804 63 155 1.7 4.3 0.00 0.00 0.00 8 1014.6
20260508091704 63 155 1.7 4.3 0.00 0.00 0.00 7 1014.5
20260508091604 63 154 1.7 4.3 0.00 0.00 0.00 7 1014.5
20260508091504 63 152 1.7 4.3 0.00 0.00 0.00 7 1014.5
20260508091425 63 151 1.7 4.3 0.00 0.00 0.00 7 1014.4
20260508091304 63 149 1.7 4.3 0.00 0.00 0.00 7 1014.4
20260508091204 63 148 1.7 4.3 0.00 0.00 0.00 7 1014.4
20260508091105 63 147 1.7 4.3 0.00 0.00 0.00 7 1014.4
20260508091025 63 145 1.7 4.3 0.00 0.00 0.00 7 1014.4
20260508090904 63 143 1.7 4.3 0.00 0.00 0.00 7 1014.4
20260508090804 63 140 1.7 3.5 0.00 0.00 0.00 6 1014.4
20260508090704 63 140 1.7 3.5 0.00 0.00 0.00 6 1014.5
20260508090605 63 139 1.7 3.5 0.00 0.00 0.00 6 1014.5
20260508090504 63 139 1.7 3.5 0.00 0.00 0.00 6 1014.6
20260508090404 63 138 1.7 3.5 0.00 0.00 0.00 6 1014.5
20260508090304 63 138 1.7 3.5 0.00 0.00 0.00 7 1014.5
20260508090204 63 138 1.7 3.5 0.00 0.00 0.00 7 1014.5
20260508090104 63 137 1.7 3.5 0.00 0.00 0.00 7 1014.4
20260508090004 63 137 1.7 3.5 0.00 0.00 0.00 7 1014.5
20260508085904 63 137 1.7 3.5 0.00 0.00 0.00 6 1014.4
20260508085804 63 138 1.7 3.5 0.00 0.00 0.00 7 1014.4
20260508085705 63 139 1.7 3.5 0.00 0.00 0.00 8 1014.4
20260508085604 63 141 1.7 3.5 0.00 0.00 0.00 8 1014.4
20260508085504 63 142 1.7 3.5 0.00 0.00 0.00 8 1014.4
20260508085404 63 145 1.7 3.5 0.00 0.00 0.00 9 1014.5
20260508085307 63 147 1.7 3.5 0.00 0.00 0.00 11 1014.5
20260508085204 63 149 1.7 4.3 0.00 0.00 0.00 11 1014.5
20260508085105 63 153 1.7 4.3 0.00 0.00 0.00 11 1014.5
20260508085004 63 155 1.7 4.3 0.00 0.00 0.00 10 1014.5
20260508084926 63 155 1.7 4.3 0.00 0.00 0.00 11 1014.5
20260508084804 63 156 1.7 4.3 0.00 0.00 0.00 12 1014.5
20260508084704 63 156 1.7 4.3 0.00 0.00 0.00 11 1014.5
20260508084604 63 156 1.7 4.3 0.00 0.00 0.00 12 1014.5
20260508084504 63 155 1.7 4.3 0.00 0.00 0.00 12 1014.5
20260508084426 63 155 1.7 4.3 0.00 0.00 0.00 12 1014.5
20260508084325 63 155 1.7 4.3 0.00 0.00 0.00 13 1014.5
20260508084204 63 155 1.7 4.3 0.00 0.00 0.00 15 1014.6
20260508084104 63 155 1.7 3.5 0.00 0.00 0.00 15 1014.6
20260508084004 63 155 1.7 3.5 0.00 0.00 0.00 15 1014.6
20260508083904 63 156 1.7 3.5 0.00 0.00 0.00 16 1014.5
20260508083825 63 156 1.7 3.5 0.00 0.00 0.00 16 1014.5
20260508083704 63 156 1.7 3.5 0.00 0.00 0.00 17 1014.5
20260508083625 63 156 1.7 3.5 0.00 0.00 0.00 17 1014.5
20260508083525 63 157 1.7 3.5 0.00 0.00 0.00 17 1014.5
20260508083404 63 156 1.7 3.5 0.00 0.00 0.00 17 1014.6
20260508083325 63 157 1.7 3.5 0.00 0.00 0.00 17 1014.6
20260508083205 63 158 1.7 3.5 0.00 0.00 0.00 17 1014.6
20260508083125 63 158 1.7 3.5 0.00 0.00 0.00 17 1014.6
20260508083025 63 158 2.6 3.5 0.00 0.00 0.00 18 1014.6
20260508082904 63 157 2.6 3.5 0.00 0.00 0.00 18 1014.6
20260508082804 63 157 2.6 3.5 0.00 0.00 0.00 19 1014.7
20260508082704 63 157 1.7 3.5 0.00 0.00 0.00 18 1014.8
20260508082604 63 157 2.6 3.5 0.00 0.00 0.00 19 1014.8
20260508082504 63 157 2.6 3.5 0.00 0.00 0.00 18 1014.7
20260508082404 63 156 1.7 3.5 0.00 0.00 0.00 19 1014.8
20260508082306 63 156 1.7 3.5 0.00 0.00 0.00 18 1014.8
20260508082204 63 157 1.7 3.5 0.00 0.00 0.00 18 1014.8
20260508082104 63 161 1.7 3.5 0.00 0.00 0.00 18 1014.8
20260508082004 63 168 1.7 5.2 0.00 0.00 0.00 18 1014.7
20260508081904 63 173 1.7 6.1 0.00 0.00 0.00 17 1014.7
20260508081804 63 177 1.7 6.1 0.00 0.00 0.00 18 1014.7
20260508081704 63 181 1.7 6.1 0.00 0.00 0.00 18 1014.7
20260508081604 63 184 1.7 6.1 0.00 0.00 0.00 18 1014.6
20260508081504 63 187 1.7 6.1 0.00 0.00 0.00 18 1014.7
20260508081404 63 191 1.7 6.1 0.00 0.00 0.00 18 1014.6
20260508081304 63 192 1.7 6.1 0.00 0.00 0.00 17 1014.6
20260508081204 63 192 1.7 6.1 0.00 0.00 0.00 17 1014.6
20260508081104 63 192 1.7 6.1 0.00 0.00 0.00 18 1014.5
20260508081004 63 189 1.7 6.1 0.00 0.00 0.00 18 1014.5
20260508080904 63 188 1.7 6.1 0.00 0.00 0.00 18 1014.4
20260508080804 63 187 1.7 6.1 0.00 0.00 0.00 18 1014.5
20260508080704 63 187 2.6 6.1 0.00 0.00 0.00 18 1014.5
20260508080604 63 189 2.6 6.1 0.00 0.00 0.00 19 1014.5
20260508080505 63 191 2.6 6.1 0.00 0.00 0.00 19 1014.5
20260508080404 63 191 2.6 6.1 0.00 0.00 0.00 19 1014.5
20260508080304 63 194 2.6 6.1 0.00 0.00 0.00 19 1014.5
20260508080204 63 193 2.6 6.1 0.00 0.00 0.00 19 1014.5
20260508080104 63 190 2.6 5.2 0.00 0.00 0.00 18 1014.5
20260508080004 63 192 2.6 5.2 0.00 0.00 0.00 18 1014.5
20260508075925 63 192 2.6 5.2 0.00 0.00 0.00 19 1014.5
20260508075804 63 190 2.6 5.2 0.00 0.00 0.00 19 1014.5
20260508075704 63 189 2.6 5.2 0.00 0.00 0.00 19 1014.5
20260508075604 63 187 2.6 5.2 0.00 0.00 0.00 19 1014.5
20260508075505 63 184 1.7 5.2 0.00 0.00 0.00 19 1014.5
20260508075404 63 183 1.7 5.2 0.00 0.00 0.00 19 1014.5
20260508075308 63 180 1.7 5.2 0.00 0.00 0.00 19 1014.6
20260508075204 63 181 1.7 5.2 0.00 0.00 0.00 19 1014.5
20260508075104 63 183 1.7 5.2 0.00 0.00 0.00 19 1014.5
20260508075004 63 181 1.7 4.3 0.00 0.00 0.00 19 1014.6
20260508074904 63 182 1.7 4.3 0.00 0.00 0.00 19 1014.5
20260508074825 63 183 0.9 4.3 0.00 0.00 0.00 19 1014.6
20260508074704 63 186 0.9 4.3 0.00 0.00 0.00 19 1014.5
20260508074604 63 188 0.9 4.3 0.00 0.00 0.00 19 1014.5
20260508074525 63 186 0.9 4.3 0.00 0.00 0.00 19 1014.4
20260508074404 63 186 0.9 4.3 0.00 0.00 0.00 19 1014.4
20260508074304 63 184 0.9 4.3 0.00 0.00 0.00 19 1014.4
20260508074225 63 184 0.9 4.3 0.00 0.00 0.00 19 1014.3
20260508074104 63 183 0.9 4.3 0.00 0.00 0.00 19 1014.4
20260508074004 63 179 0.9 4.3 0.00 0.00 0.00 19 1014.4
20260508073904 63 179 0.9 4.3 0.00 0.00 0.00 19 1014.3
20260508073804 63 184 1.7 4.3 0.00 0.00 0.00 19 1014.3
20260508073704 63 184 1.7 4.3 0.00 0.00 0.00 19 1014.4
20260508073604 63 183 0.9 4.3 0.00 0.00 0.00 19 1014.4
20260508073504 63 185 0.9 4.3 0.00 0.00 0.00 18 1014.4
20260508073404 63 185 0.9 4.3 0.00 0.00 0.00 18 1014.5
20260508073304 63 187 0.9 4.3 0.00 0.00 0.00 19 1014.4
20260508073204 63 188 0.9 4.3 0.00 0.00 0.00 19 1014.4
20260508073104 63 188 0.9 4.3 0.00 0.00 0.00 18 1014.5
20260508073004 63 191 0.9 4.3 0.00 0.00 0.00 18 1014.5
20260508072925 63 195 0.0 4.3 0.00 0.00 0.00 19 1014.5
20260508072805 63 200 0.0 4.3 0.00 0.00 0.00 18 1014.5
20260508072705 63 192 0.0 2.6 0.00 0.00 0.00 18 1014.5
20260508072604 63 192 0.0 2.6 0.00 0.00 0.00 18 1014.5
20260508072504 63 192 0.0 2.6 0.00 0.00 0.00 18 1014.4
20260508072405 63 192 0.0 2.6 0.00 0.00 0.00 18 1014.4
20260508072307 63 192 0.0 2.6 0.00 0.00 0.00 18 1014.4
20260508072204 63 0 0.0 0.0 0.00 0.00 0.00 17 1014.3
20260508072104 63 0 0.0 0.0 0.00 0.00 0.00 17 1014.3
20260508072005 63 0 0.0 0.0 0.00 0.00 0.00 16 1014.3
20260508071904 63 0 0.0 0.0 0.00 0.00 0.00 16 1014.3
20260508071804 63 0 0.0 0.0 0.00 0.00 0.00 16 1014.4
20260508071725 63 0 0.0 0.0 0.00 0.00 0.00 16 1014.4
20260508071604 63 170 0.0 2.6 0.00 0.00 0.00 16 1014.5
20260508071525 63 170 0.0 2.6 0.00 0.00 0.00 15 1014.6
20260508071404 63 170 0.0 2.6 0.00 0.00 0.00 15 1014.5
20260508071304 63 170 0.0 2.6 0.00 0.00 0.00 14 1014.6
20260508071204 63 170 0.0 2.6 0.00 0.00 0.00 14 1014.5
20260508071104 63 167 0.9 4.3 0.00 0.00 0.00 14 1014.5
20260508071004 63 166 0.9 4.3 0.00 0.00 0.00 14 1014.6
20260508070904 63 164 0.9 4.3 0.00 0.00 0.00 13 1014.7
20260508070804 63 163 0.9 4.3 0.00 0.00 0.00 13 1014.8
20260508070704 63 162 0.9 4.3 0.00 0.00 0.00 13 1014.9
20260508070604 63 161 0.9 4.3 0.00 0.00 0.00 13 1014.9
20260508070504 63 160 0.9 4.3 0.00 0.00 0.00 12 1015.0
20260508070404 63 160 0.9 4.3 0.00 0.00 0.00 12 1015.0
20260508070304 63 160 0.9 4.3 0.00 0.00 0.00 11 1015.1
20260508070204 63 156 0.0 4.3 0.00 0.00 0.00 10 1015.1
20260508070104 63 153 0.0 3.5 0.00 0.00 0.00 11 1015.1
20260508070005 63 152 0.0 3.5 0.00 0.00 0.00 10 1015.1
20260508065904 63 152 0.0 1.7 0.00 0.00 0.00 9 1015.1
20260508065804 63 0 0.0 0.0 0.00 0.00 0.00 10 1015.0
20260508065725 63 0 0.0 0.0 0.00 0.00 0.00 10 1015.1
20260508065604 63 0 0.0 0.0 0.00 0.00 0.00 9 1015.0
20260508065504 63 0 0.0 0.0 0.00 0.00 0.00 10 1015.0
20260508065405 63 0 0.0 0.0 0.00 0.00 0.00 10 1015.0
20260508065307 63 0 0.0 0.0 0.00 0.00 0.00 10 1015.0
20260508065204 63 0 0.0 0.0 0.00 0.00 0.00 10 1015.1
20260508065104 62 151 0.0 1.7 0.00 0.00 0.00 9 1015.1
20260508065004 63 151 0.0 2.6 0.00 0.00 0.00 8 1015.2
20260508064904 62 151 0.0 2.6 0.00 0.00 0.00 8 1015.1
20260508064825 62 151 0.0 2.6 0.00 0.00 0.00 8 1015.1
20260508064705 62 151 0.0 2.6 0.00 0.00 0.00 8 1015.1
20260508064604 62 151 0.0 2.6 0.00 0.00 0.00 7 1015.2
20260508064504 62 151 0.0 2.6 0.00 0.00 0.00 7 1015.2
20260508064404 62 151 0.0 2.6 0.00 0.00 0.00 7 1015.2
20260508064304 62 150 0.0 2.6 0.00 0.00 0.00 7 1015.2
20260508064204 62 150 0.0 2.6 0.00 0.00 0.00 7 1015.3
20260508064104 62 150 0.0 2.6 0.00 0.00 0.00 6 1015.3
20260508064004 62 150 0.0 2.6 0.00 0.00 0.00 6 1015.4
20260508063904 62 150 0.0 2.6 0.00 0.00 0.00 6 1015.4
20260508063804 62 150 0.0 2.6 0.00 0.00 0.00 5 1015.5
20260508063704 62 150 0.0 2.6 0.00 0.00 0.00 5 1015.5
20260508063604 62 150 0.0 2.6 0.00 0.00 0.00 5 1015.6
20260508063504 63 150 0.0 2.6 0.00 0.00 0.00 5 1015.6
20260508063404 62 149 0.0 2.6 0.00 0.00 0.00 5 1015.7
20260508063304 62 148 0.0 2.6 0.00 0.00 0.00 5 1015.7
20260508063204 62 146 0.0 2.6 0.00 0.00 0.00 5 1015.7
20260508063104 62 146 0.0 2.6 0.00 0.00 0.00 6 1015.7
20260508063004 62 146 0.0 2.6 0.00 0.00 0.00 5 1015.8
20260508062904 62 146 0.0 2.6 0.00 0.00 0.00 5 1015.8
20260508062804 62 146 0.0 2.6 0.00 0.00 0.00 5 1015.8
20260508062704 62 146 0.0 2.6 0.00 0.00 0.00 5 1015.9
20260508062604 62 146 0.0 2.6 0.00 0.00 0.00 4 1015.9
20260508062504 62 146 0.0 2.6 0.00 0.00 0.00 5 1015.9
20260508062404 62 146 0.0 2.6 0.00 0.00 0.00 5 1015.9
20260508062306 62 146 0.0 2.6 0.00 0.00 0.00 5 1015.9
20260508062205 62 146 0.0 0.9 0.00 0.00 0.00 4 1015.8
20260508062104 62 146 0.0 0.9 0.00 0.00 0.00 3 1015.8
20260508062004 62 146 0.0 0.9 0.00 0.00 0.00 4 1015.7
20260508061904 62 146 0.0 0.9 0.00 0.00 0.00 4 1015.6
20260508061825 62 146 0.0 0.9 0.00 0.00 0.00 5 1015.5
20260508061704 62 0 0.0 0.0 0.00 0.00 0.00 5 1015.4
20260508061604 62 0 0.0 0.0 0.00 0.00 0.00 5 1015.3
20260508061504 62 146 0.0 0.9 0.00 0.00 0.00 5 1015.4
20260508061404 62 146 0.0 0.9 0.00 0.00 0.00 6 1015.3
20260508061304 62 146 0.0 0.9 0.00 0.00 0.00 6 1015.2
20260508061204 62 146 0.0 0.9 0.00 0.00 0.00 6 1015.3
20260508061104 62 146 0.0 0.9 0.00 0.00 0.00 7 1015.2
20260508061004 62 146 0.0 0.9 0.00 0.00 0.00 7 1015.2
20260508060904 62 146 0.0 0.9 0.00 0.00 0.00 7 1015.2
20260508060804 62 146 0.0 0.9 0.00 0.00 0.00 7 1015.2
20260508060704 62 146 0.0 0.9 0.00 0.00 0.00 7 1015.2
20260508060604 62 146 0.0 0.9 0.00 0.00 0.00 7 1015.2
20260508060504 62 146 0.0 0.9 0.00 0.00 0.00 7 1015.2
20260508060404 62 146 0.0 0.9 0.00 0.00 0.00 8 1015.2
20260508060304 62 146 0.0 0.9 0.00 0.00 0.00 8 1015.2
20260508060204 62 146 0.0 0.9 0.00 0.00 0.00 8 1015.3
20260508060104 62 0 0.0 0.0 0.00 0.00 0.00 8 1015.3
20260508060005 62 0 0.0 0.0 0.00 0.00 0.00 8 1015.4
20260508055904 62 0 0.0 0.0 0.00 0.00 0.00 8 1015.4
20260508055804 62 0 0.0 0.0 0.00 0.00 0.00 8 1015.4
20260508055704 62 0 0.0 0.0 0.00 0.00 0.00 8 1015.5
20260508055604 62 0 0.0 0.0 0.00 0.00 0.00 8 1015.4
20260508055504 62 0 0.0 0.0 0.00 0.00 0.00 8 1015.4
20260508055404 62 0 0.0 0.0 0.00 0.00 0.00 9 1015.4
20260508055326 62 0 0.0 0.0 0.00 0.00 0.00 8 1015.4
20260508055204 62 0 0.0 0.0 0.00 0.00 0.00 8 1015.4
20260508055104 62 0 0.0 0.0 0.00 0.00 0.00 8 1015.4
20260508055004 62 0 0.0 0.0 0.00 0.00 0.00 9 1015.5
20260508054904 62 0 0.0 0.0 0.00 0.00 0.00 9 1015.6
20260508054804 62 0 0.0 0.0 0.00 0.00 0.00 9 1015.6
20260508054704 62 0 0.0 0.0 0.00 0.00 0.00 9 1015.7
20260508054604 62 0 0.0 0.0 0.00 0.00 0.00 10 1015.7
20260508054504 63 120 0.0 0.9 0.00 0.00 0.00 10 1015.8
20260508054404 63 120 0.0 0.9 0.00 0.00 0.00 10 1015.7
20260508054304 63 120 0.0 0.9 0.00 0.00 0.00 10 1015.7
20260508054204 63 120 0.0 0.9 0.00 0.00 0.00 11 1015.7
20260508054125 63 120 0.0 0.9 0.00 0.00 0.00 11 1015.7
20260508054004 63 120 0.0 0.9 0.00 0.00 0.00 11 1015.6
20260508053904 63 120 0.0 0.9 0.00 0.00 0.00 11 1015.6
20260508053804 63 120 0.0 0.9 0.00 0.00 0.00 12 1015.6
20260508053704 63 120 0.0 0.9 0.00 0.00 0.00 12 1015.7
20260508053625 63 120 0.0 0.9 0.00 0.00 0.00 12 1015.7
20260508053504 63 0 0.0 0.0 0.00 0.00 0.00 12 1015.7
20260508053404 63 180 0.0 4.3 0.00 0.00 0.00 13 1015.7
20260508053304 63 180 0.0 4.3 0.00 0.00 0.00 13 1015.7
20260508053204 63 180 0.0 4.3 0.00 0.00 0.00 13 1015.6
20260508053125 63 180 0.0 4.3 0.00 0.00 0.00 13 1015.4
20260508053004 63 180 0.0 4.3 0.00 0.00 0.00 13 1015.3
20260508052904 63 180 0.0 4.3 0.00 0.00 0.00 13 1015.1
20260508052804 63 180 0.0 4.3 0.00 0.00 0.00 14 1015.0
20260508052704 63 180 0.0 4.3 0.00 0.00 0.00 14 1014.8
20260508052604 63 180 0.0 4.3 0.00 0.00 0.00 14 1014.7
20260508052504 63 180 0.0 4.3 0.00 0.00 0.00 14 1014.6
20260508052404 63 0 0.0 0.0 0.00 0.00 0.00 14 1014.6
20260508052307 63 0 0.0 0.0 0.00 0.00 0.00 14 1014.6
20260508052204 63 0 0.0 0.0 0.00 0.00 0.00 14 1014.7
20260508052125 63 0 0.0 0.0 0.00 0.00 0.00 14 1014.7
20260508052004 63 0 0.0 0.0 0.00 0.00 0.00 14 1014.8
20260508051904 63 0 0.0 0.0 0.00 0.00 0.00 14 1014.8
20260508051825 63 0 0.0 0.0 0.00 0.00 0.00 14 1014.9
20260508051704 63 0 0.0 0.0 0.00 0.00 0.00 14 1014.9
20260508051626 63 0 0.0 0.0 0.00 0.00 0.00 14 1014.9
20260508051504 63 0 0.0 0.0 0.00 0.00 0.00 14 1015.0
20260508051404 63 0 0.0 0.0 0.00 0.00 0.00 14 1015.1
20260508051304 63 0 0.0 0.0 0.00 0.00 0.00 14 1015.1
20260508051204 63 0 0.0 0.0 0.00 0.00 0.00 14 1015.2
20260508051104 63 0 0.0 0.0 0.00 0.00 0.00 14 1015.3
20260508051025 63 0 0.0 0.0 0.00 0.00 0.00 14 1015.3
20260508050904 63 0 0.0 0.0 0.00 0.00 0.00 14 1015.4
20260508050804 63 0 0.0 0.0 0.00 0.00 0.00 13 1015.4
20260508050704 63 139 0.0 0.9 0.00 0.00 0.00 12 1015.5
20260508050604 63 139 0.0 0.9 0.00 0.00 0.00 12 1015.6
20260508050525 63 139 0.0 0.9 0.00 0.00 0.00 13 1015.7
20260508050404 63 139 0.0 0.9 0.00 0.00 0.00 13 1015.8
20260508050304 63 139 0.0 0.9 0.00 0.00 0.00 13 1015.9
20260508050204 63 139 0.0 0.9 0.00 0.00 0.00 13 1015.9
20260508050104 63 139 0.0 0.9 0.00 0.00 0.00 13 1016.0
20260508050004 63 139 0.0 0.9 0.00 0.00 0.00 13 1016.0
20260508045904 63 139 0.0 0.9 0.00 0.00 0.00 14 1016.0
20260508045804 63 139 0.0 0.9 0.00 0.00 0.00 14 1016.0
20260508045704 63 0 0.0 0.0 0.00 0.00 0.00 14 1016.0
20260508045604 63 0 0.0 0.0 0.00 0.00 0.00 15 1016.0
20260508045504 63 0 0.0 0.0 0.00 0.00 0.00 15 1016.0
20260508045404 63 0 0.0 0.0 0.00 0.00 0.00 16 1015.9
20260508045307 63 0 0.0 0.0 0.00 0.00 0.00 16 1015.8
20260508045204 63 0 0.0 0.0 0.00 0.00 0.00 17 1015.7
20260508045104 63 0 0.0 0.0 0.00 0.00 0.00 18 1015.5
20260508045004 63 0 0.0 0.0 0.00 0.00 0.00 18 1015.4
20260508044904 63 0 0.0 0.0 0.00 0.00 0.00 18 1015.3
20260508044804 63 0 0.0 0.0 0.00 0.00 0.00 19 1015.2
20260508044725 63 0 0.0 0.0 0.00 0.00 0.00 19 1015.1
20260508044604 63 0 0.0 0.0 0.00 0.00 0.00 19 1015.1
20260508044504 63 0 0.0 0.0 0.00 0.00 0.00 20 1015.1
20260508044404 63 0 0.0 0.0 0.00 0.00 0.00 20 1015.1
20260508044304 63 0 0.0 0.0 0.00 0.00 0.00 20 1015.1
20260508044225 63 0 0.0 0.0 0.00 0.00 0.00 20 1015.1
20260508044104 63 0 0.0 0.0 0.00 0.00 0.00 21 1015.1
20260508044004 63 0 0.0 0.0 0.00 0.00 0.00 20 1015.1
20260508043904 63 0 0.0 0.0 0.00 0.00 0.00 20 1015.1
20260508043825 63 0 0.0 0.0 0.00 0.00 0.00 20 1015.1
20260508043704 63 0 0.0 0.0 0.00 0.00 0.00 21 1015.1
20260508043604 63 0 0.0 0.0 0.00 0.00 0.00 21 1015.1
20260508043504 63 0 0.0 0.0 0.00 0.00 0.00 21 1015.1
20260508043404 63 0 0.0 0.0 0.00 0.00 0.00 21 1015.2
20260508043304 63 0 0.0 0.0 0.00 0.00 0.00 20 1015.2
20260508043204 63 0 0.0 0.0 0.00 0.00 0.00 21 1015.3
20260508043104 63 0 0.0 0.0 0.00 0.00 0.00 21 1015.4
20260508043004 63 0 0.0 0.0 0.00 0.00 0.00 21 1015.4
20260508042904 63 0 0.0 0.0 0.00 0.00 0.00 21 1015.5
20260508042805 63 0 0.0 0.0 0.00 0.00 0.00 21 1015.5
20260508042704 63 0 0.0 0.0 0.00 0.00 0.00 21 1015.5
20260508042604 63 0 0.0 0.0 0.00 0.00 0.00 21 1015.5
20260508042504 63 0 0.0 0.0 0.00 0.00 0.00 21 1015.4
20260508042404 63 0 0.0 0.0 0.00 0.00 0.00 22 1015.5
20260508042307 63 0 0.0 0.0 0.00 0.00 0.00 22 1015.5
20260508042204 63 0 0.0 0.0 0.00 0.00 0.00 22 1015.5
20260508042104 63 0 0.0 0.0 0.00 0.00 0.00 22 1015.5
20260508042004 63 0 0.0 0.0 0.00 0.00 0.00 22 1015.5
20260508041904 63 0 0.0 0.0 0.00 0.00 0.00 22 1015.7
20260508041804 63 0 0.0 0.0 0.00 0.00 0.00 22 1015.7
20260508041705 63 0 0.0 0.0 0.00 0.00 0.00 21 1015.8
20260508041604 63 0 0.0 0.0 0.00 0.00 0.00 21 1015.8
20260508041505 63 0 0.0 0.0 0.00 0.00 0.00 21 1015.8
20260508041404 63 0 0.0 0.0 0.00 0.00 0.00 21 1015.9
20260508041304 63 0 0.0 0.0 0.00 0.00 0.00 21 1015.9
20260508041204 63 0 0.0 0.0 0.00 0.00 0.00 21 1015.9
20260508041104 63 0 0.0 0.0 0.00 0.00 0.00 21 1015.9
20260508041004 63 0 0.0 0.0 0.00 0.00 0.00 21 1015.8
20260508040904 63 0 0.0 0.0 0.00 0.00 0.00 21 1015.8
20260508040804 63 0 0.0 0.0 0.00 0.00 0.00 21 1015.7
20260508040704 63 0 0.0 0.0 0.00 0.00 0.00 21 1015.7
20260508040625 63 0 0.0 0.0 0.00 0.00 0.00 21 1015.7
20260508040504 63 0 0.0 0.0 0.00 0.00 0.00 20 1015.7
20260508040425 63 0 0.0 0.0 0.00 0.00 0.00 20 1015.6
20260508040325 63 0 0.0 0.0 0.00 0.00 0.00 20 1015.6
20260508040204 63 0 0.0 0.0 0.00 0.00 0.00 20 1015.7
20260508040104 63 0 0.0 0.0 0.00 0.00 0.00 22 1015.6
20260508040005 63 0 0.0 0.0 0.00 0.00 0.00 22 1015.7
20260508035904 63 0 0.0 0.0 0.00 0.00 0.00 22 1015.7
20260508035825 63 0 0.0 0.0 0.00 0.00 0.00 22 1015.7
20260508035704 63 0 0.0 0.0 0.00 0.00 0.00 22 1015.7
20260508035604 63 0 0.0 0.0 0.00 0.00 0.00 23 1015.8
20260508035504 63 0 0.0 0.0 0.00 0.00 0.00 23 1015.8
20260508035404 63 0 0.0 0.0 0.00 0.00 0.00 24 1015.8
20260508035306 63 0 0.0 0.0 0.00 0.00 0.00 24 1015.9
20260508035204 63 0 0.0 0.0 0.00 0.00 0.00 24 1015.8
20260508035104 63 0 0.0 0.0 0.00 0.00 0.00 24 1015.9
20260508035004 63 0 0.0 0.0 0.00 0.00 0.00 24 1016.0
20260508034904 63 0 0.0 0.0 0.00 0.00 0.00 24 1016.0
20260508034804 63 0 0.0 0.0 0.00 0.00 0.00 24 1016.1
20260508034704 63 0 0.0 0.0 0.00 0.00 0.00 24 1016.2
20260508034604 63 0 0.0 0.0 0.00 0.00 0.00 24 1016.2
20260508034525 63 0 0.0 0.0 0.00 0.00 0.00 24 1016.3
20260508034404 63 0 0.0 0.0 0.00 0.00 0.00 24 1016.3
20260508034304 63 0 0.0 0.0 0.00 0.00 0.00 23 1016.4
20260508034204 63 0 0.0 0.0 0.00 0.00 0.00 22 1016.5
20260508034104 63 0 0.0 0.0 0.00 0.00 0.00 22 1016.6
20260508034004 63 0 0.0 0.0 0.00 0.00 0.00 22 1016.7
20260508033904 63 0 0.0 0.0 0.00 0.00 0.00 21 1016.7
20260508033804 63 0 0.0 0.0 0.00 0.00 0.00 21 1016.8
20260508033704 63 0 0.0 0.0 0.00 0.00 0.00 21 1016.8
20260508033604 63 0 0.0 0.0 0.00 0.00 0.00 21 1016.8
20260508033504 63 0 0.0 0.0 0.00 0.00 0.00 21 1016.7
20260508033404 63 0 0.0 0.0 0.00 0.00 0.00 21 1016.6
20260508033304 63 0 0.0 0.0 0.00 0.00 0.00 21 1016.6
20260508033204 63 0 0.0 0.0 0.00 0.00 0.00 21 1016.5
20260508033104 63 0 0.0 0.0 0.00 0.00 0.00 21 1016.5
20260508033004 63 0 0.0 0.0 0.00 0.00 0.00 21 1016.5
20260508032925 63 0 0.0 0.0 0.00 0.00 0.00 21 1016.5
20260508032804 63 0 0.0 0.0 0.00 0.00 0.00 21 1016.4
20260508032704 63 0 0.0 0.0 0.00 0.00 0.00 21 1016.4
20260508032604 63 0 0.0 0.0 0.00 0.00 0.00 22 1016.4
20260508032504 63 0 0.0 0.0 0.00 0.00 0.00 22 1016.4
20260508032404 63 0 0.0 0.0 0.00 0.00 0.00 22 1016.3
20260508032306 63 0 0.0 0.0 0.00 0.00 0.00 22 1016.3
20260508032204 63 0 0.0 0.0 0.00 0.00 0.00 22 1016.2
20260508032104 63 0 0.0 0.0 0.00 0.00 0.00 22 1016.2
20260508032004 63 0 0.0 0.0 0.00 0.00 0.00 22 1016.2
20260508031904 63 0 0.0 0.0 0.00 0.00 0.00 23 1016.2
20260508031825 63 0 0.0 0.0 0.00 0.00 0.00 22 1016.1
20260508031704 63 0 0.0 0.0 0.00 0.00 0.00 22 1016.0
20260508031604 63 0 0.0 0.0 0.00 0.00 0.00 23 1016.0
20260508031504 63 0 0.0 0.0 0.00 0.00 0.00 23 1015.9
20260508031404 63 0 0.0 0.0 0.00 0.00 0.00 23 1015.8
20260508031304 63 0 0.0 0.0 0.00 0.00 0.00 23 1015.7
20260508031204 63 0 0.0 0.0 0.00 0.00 0.00 23 1015.7
20260508031104 63 0 0.0 0.0 0.00 0.00 0.00 23 1015.7
20260508031004 63 0 0.0 0.0 0.00 0.00 0.00 23 1015.7
20260508030904 63 0 0.0 0.0 0.00 0.00 0.00 24 1015.6
20260508030825 63 0 0.0 0.0 0.00 0.00 0.00 24 1015.6
20260508030704 63 0 0.0 0.0 0.00 0.00 0.00 24 1015.5
20260508030625 63 0 0.0 0.0 0.00 0.00 0.00 24 1015.5
20260508030505 63 0 0.0 0.0 0.00 0.00 0.00 24 1015.5
20260508030404 63 0 0.0 0.0 0.00 0.00 0.00 25 1015.5
20260508030304 63 0 0.0 0.0 0.00 0.00 0.00 25 1015.6
20260508030204 63 0 0.0 0.0 0.00 0.00 0.00 25 1015.6
20260508030104 63 0 0.0 0.0 0.00 0.00 0.00 25 1015.6
20260508030004 63 0 0.0 0.0 0.00 0.00 0.00 25 1015.7
20260508025925 63 0 0.0 0.0 0.00 0.00 0.00 25 1015.7
20260508025804 63 0 0.0 0.0 0.00 0.00 0.00 25 1015.8
20260508025704 63 0 0.0 0.0 0.00 0.00 0.00 25 1015.8
20260508025604 63 0 0.0 0.0 0.00 0.00 0.00 25 1015.8
20260508025504 63 0 0.0 0.0 0.00 0.00 0.00 25 1015.8
20260508025404 63 0 0.0 0.0 0.00 0.00 0.00 26 1015.7
20260508025306 63 0 0.0 0.0 0.00 0.00 0.00 26 1015.7
20260508025225 63 0 0.0 0.0 0.00 0.00 0.00 26 1015.7
20260508025104 63 0 0.0 0.0 0.00 0.00 0.00 26 1015.7
20260508025004 63 0 0.0 0.0 0.00 0.00 0.00 26 1015.6
20260508024904 63 0 0.0 0.0 0.00 0.00 0.00 26 1015.6
20260508024804 63 0 0.0 0.0 0.00 0.00 0.00 26 1015.5
20260508024704 63 0 0.0 0.0 0.00 0.00 0.00 25 1015.4
20260508024604 63 0 0.0 0.0 0.00 0.00 0.00 25 1015.3
20260508024525 63 0 0.0 0.0 0.00 0.00 0.00 25 1015.2
20260508024404 63 0 0.0 0.0 0.00 0.00 0.00 25 1015.2
20260508024304 63 0 0.0 0.0 0.00 0.00 0.00 25 1015.1
20260508024204 63 0 0.0 0.0 0.00 0.00 0.00 25 1015.0
20260508024104 63 0 0.0 0.0 0.00 0.00 0.00 25 1015.0
20260508024004 63 0 0.0 0.0 0.00 0.00 0.00 25 1014.9
20260508023904 63 0 0.0 0.0 0.00 0.00 0.00 26 1014.7
20260508023804 63 0 0.0 0.0 0.00 0.00 0.00 26 1014.6
20260508023704 63 0 0.0 0.0 0.00 0.00 0.00 26 1014.4
20260508023605 63 0 0.0 0.0 0.00 0.00 0.00 26 1014.4
20260508023525 63 0 0.0 0.0 0.00 0.00 0.00 27 1014.3
20260508023404 63 0 0.0 0.0 0.00 0.00 0.00 28 1014.3
20260508023304 63 0 0.0 0.0 0.00 0.00 0.00 28 1014.3
20260508023225 63 0 0.0 0.0 0.00 0.00 0.00 28 1014.3
20260508023104 63 0 0.0 0.0 0.00 0.00 0.00 28 1014.2
20260508023004 63 0 0.0 0.0 0.00 0.00 0.00 29 1014.2
20260508022904 63 0 0.0 0.0 0.00 0.00 0.00 29 1014.2
20260508022804 63 0 0.0 0.0 0.00 0.00 0.00 30 1014.2
20260508022704 63 0 0.0 0.0 0.00 0.00 0.00 31 1014.2
20260508022626 63 0 0.0 0.0 0.00 0.00 0.00 31 1014.3
20260508022525 63 0 0.0 0.0 0.00 0.00 0.00 31 1014.3
20260508022404 63 0 0.0 0.0 0.00 0.00 0.00 31 1014.3
20260508022307 63 0 0.0 0.0 0.00 0.00 0.00 31 1014.3
20260508022204 63 0 0.0 0.0 0.00 0.00 0.00 32 1014.3
20260508022104 63 0 0.0 0.0 0.00 0.00 0.00 32 1014.3
20260508022005 63 0 0.0 0.0 0.00 0.00 0.00 32 1014.4
20260508021904 63 0 0.0 0.0 0.00 0.00 0.00 32 1014.4
20260508021804 63 202 0.9 5.2 0.00 0.00 0.00 32 1014.4
20260508021704 63 202 0.9 5.2 0.00 0.00 0.00 33 1014.4
20260508021604 63 202 0.9 5.2 0.00 0.00 0.00 32 1014.4
20260508021504 63 202 0.9 5.2 0.00 0.00 0.00 32 1014.4
20260508021425 63 202 0.9 5.2 0.00 0.00 0.00 32 1014.3
20260508021325 63 202 0.9 5.2 0.00 0.00 0.00 33 1014.3
20260508021204 63 202 0.9 5.2 0.00 0.00 0.00 33 1014.3
20260508021104 63 202 0.9 5.2 0.00 0.00 0.00 34 1014.3
20260508021004 63 202 0.9 5.2 0.00 0.00 0.00 34 1014.3
20260508020904 63 202 0.0 5.2 0.00 0.00 0.00 34 1014.3
20260508020825 63 200 0.0 5.2 0.00 0.00 0.00 34 1014.3
20260508020704 63 0 0.0 0.0 0.00 0.00 0.00 34 1014.2
20260508020604 63 0 0.0 0.0 0.00 0.00 0.00 34 1014.2
20260508020525 63 0 0.0 0.0 0.00 0.00 0.00 35 1014.2
20260508020404 63 0 0.0 0.0 0.00 0.00 0.00 34 1014.2
20260508020304 63 0 0.0 0.0 0.00 0.00 0.00 35 1014.3
20260508020204 63 0 0.0 0.0 0.00 0.00 0.00 35 1014.3
20260508020104 63 0 0.0 0.0 0.00 0.00 0.00 35 1014.3
20260508020025 63 0 0.0 0.0 0.00 0.00 0.00 35 1014.3
20260508015925 63 208 0.0 1.7 0.00 0.00 0.00 35 1014.2
20260508015804 63 208 0.0 1.7 0.00 0.00 0.00 35 1014.2
20260508015704 63 208 0.0 1.7 0.00 0.00 0.00 35 1014.2
20260508015604 63 208 0.0 1.7 0.00 0.00 0.00 35 1014.1
20260508015504 63 208 0.0 1.7 0.00 0.00 0.00 35 1014.0
20260508015404 63 208 0.0 1.7 0.00 0.00 0.00 35 1014.0
20260508015306 63 208 0.0 1.7 0.00 0.00 0.00 35 1014.0
20260508015204 63 208 0.0 1.7 0.00 0.00 0.00 36 1014.0
20260508015104 63 208 0.0 1.7 0.00 0.00 0.00 37 1014.1
20260508015004 64 208 0.0 1.7 0.00 0.00 0.00 37 1014.1
20260508014904 64 0 0.0 0.0 0.00 0.00 0.00 37 1014.1
20260508014804 64 0 0.0 0.0 0.00 0.00 0.00 38 1014.1
20260508014704 64 0 0.0 0.0 0.00 0.00 0.00 38 1014.1
20260508014625 64 0 0.0 0.0 0.00 0.00 0.00 39 1014.1
20260508014504 64 0 0.0 0.0 0.00 0.00 0.00 39 1014.0
20260508014404 64 0 0.0 0.0 0.00 0.00 0.00 40 1014.1
20260508014325 64 0 0.0 0.0 0.00 0.00 0.00 40 1014.0
20260508014225 64 0 0.0 0.0 0.00 0.00 0.00 40 1014.0
20260508014105 64 0 0.0 0.0 0.00 0.00 0.00 41 1014.0
20260508014004 64 0 0.0 0.0 0.00 0.00 0.00 41 1014.0
20260508013904 64 0 0.0 0.0 0.00 0.00 0.00 41 1014.0
20260508013804 64 0 0.0 0.0 0.00 0.00 0.00 42 1014.1
20260508013704 64 0 0.0 0.9 0.00 0.00 0.00 42 1014.2
20260508013604 64 0 0.0 0.9 0.00 0.00 0.00 42 1014.2
20260508013504 64 0 0.0 0.9 0.00 0.00 0.00 42 1014.3
20260508013404 64 0 0.0 0.9 0.00 0.00 0.00 43 1014.3
20260508013326 64 0 0.0 0.9 0.00 0.00 0.00 43 1014.4
20260508013204 64 0 0.0 0.9 0.00 0.00 0.00 43 1014.4
20260508013104 64 0 0.0 0.9 0.00 0.00 0.00 44 1014.4
20260508013005 64 0 0.0 0.9 0.00 0.00 0.00 44 1014.3
20260508012904 64 0 0.0 0.9 0.00 0.00 0.00 44 1014.2
20260508012804 64 0 0.0 0.9 0.00 0.00 0.00 45 1014.2
20260508012704 64 0 0.0 0.0 0.00 0.00 0.00 45 1014.3
20260508012604 64 0 0.0 0.0 0.00 0.00 0.00 45 1014.4
20260508012504 64 0 0.0 0.0 0.00 0.00 0.00 45 1014.6
20260508012404 64 0 0.0 0.0 0.00 0.00 0.00 45 1014.8
20260508012307 64 0 0.0 0.0 0.00 0.00 0.00 46 1014.9
20260508012225 64 0 0.0 0.0 0.00 0.00 0.00 46 1015.0
20260508012104 64 0 0.0 0.0 0.00 0.00 0.00 46 1015.1
20260508012025 64 0 0.0 0.0 0.00 0.00 0.00 46 1015.2
20260508011904 64 0 0.0 0.0 0.00 0.00 0.00 46 1015.2
20260508011825 64 0 0.0 0.0 0.00 0.00 0.00 46 1015.2
20260508011704 64 0 0.0 0.0 0.00 0.00 0.00 47 1015.1
20260508011604 64 0 0.0 0.0 0.00 0.00 0.00 47 1015.0
20260508011504 64 0 0.0 0.0 0.00 0.00 0.00 47 1014.8
20260508011404 64 0 0.0 0.0 0.00 0.00 0.00 47 1014.6
20260508011304 64 0 0.0 0.0 0.00 0.00 0.00 47 1014.5
20260508011204 64 0 0.0 0.0 0.00 0.00 0.00 48 1014.4
20260508011104 64 0 0.0 0.0 0.00 0.00 0.00 48 1014.4
20260508011004 64 0 0.0 0.0 0.00 0.00 0.00 48 1014.5
20260508010904 64 0 0.0 0.0 0.00 0.00 0.00 48 1014.5
20260508010804 64 0 0.0 0.0 0.00 0.00 0.00 48 1014.7
20260508010725 64 0 0.0 0.0 0.00 0.00 0.00 48 1014.8
20260508010604 64 0 0.0 0.0 0.00 0.00 0.00 48 1014.9
20260508010525 64 0 0.0 0.0 0.00 0.00 0.00 48 1014.9
20260508010404 64 0 0.0 0.0 0.00 0.00 0.00 49 1014.8
20260508010304 64 0 0.0 0.0 0.00 0.00 0.00 49 1014.6
20260508010204 64 0 0.0 0.0 0.00 0.00 0.00 49 1014.6
20260508010105 64 0 0.0 0.0 0.00 0.00 0.00 49 1014.5
20260508010004 64 0 0.0 0.0 0.00 0.00 0.00 49 1014.5
20260508005925 64 0 0.0 0.0 0.00 0.00 0.00 49 1014.5
20260508005804 64 0 0.0 0.0 0.00 0.00 0.00 49 1014.5
20260508005725 65 0 0.0 0.0 0.00 0.00 0.00 49 1014.6
20260508005604 65 0 0.0 0.0 0.00 0.00 0.00 49 1014.6
20260508005504 65 0 0.0 0.0 0.00 0.00 0.00 49 1014.7
20260508005404 65 0 0.0 0.0 0.00 0.00 0.00 50 1014.8
20260508005306 65 0 0.0 0.0 0.00 0.00 0.00 49 1014.8
20260508005204 65 0 0.0 0.0 0.00 0.00 0.00 50 1014.9
20260508005104 65 212 0.0 1.7 0.00 0.00 0.00 50 1015.1
20260508005004 65 225 0.0 1.7 0.00 0.00 0.00 50 1015.1
20260508004904 65 250 0.0 7.0 0.00 0.00 0.00 50 1015.1
20260508004825 65 250 0.0 7.0 0.00 0.00 0.00 50 1015.1
20260508004704 65 251 0.0 7.0 0.00 0.00 0.00 50 1015.1
20260508004604 65 251 0.0 7.0 0.00 0.00 0.00 50 1015.0
20260508004504 65 251 0.0 7.0 0.00 0.00 0.00 50 1014.9
20260508004404 65 251 0.0 7.0 0.00 0.00 0.00 50 1014.8
20260508004304 65 244 0.0 7.0 0.00 0.00 0.00 50 1014.6
20260508004204 65 244 0.0 7.0 0.00 0.00 0.00 50 1014.5
20260508004104 65 247 0.0 7.0 0.00 0.00 0.00 50 1014.4
20260508004004 65 249 0.0 7.0 0.00 0.00 0.00 50 1014.4
20260508003925 65 260 0.0 7.0 0.00 0.00 0.00 50 1014.4
20260508003825 65 259 0.0 7.0 0.00 0.00 0.00 50 1014.5
20260508003704 65 259 0.0 7.0 0.00 0.00 0.00 50 1014.8
20260508003604 65 259 0.0 7.0 0.00 0.00 0.00 50 1014.9
20260508003525 65 259 0.0 7.0 0.00 0.00 0.00 50 1015.0
20260508003404 65 259 0.0 7.0 0.00 0.00 0.00 50 1015.1
20260508003304 65 263 0.0 7.0 0.00 0.00 0.00 50 1015.1
20260508003204 65 263 0.0 7.0 0.00 0.00 0.00 50 1014.9
20260508003105 65 261 0.0 7.0 0.00 0.00 0.00 50 1014.8
20260508003025 65 261 0.0 7.0 0.00 0.00 0.00 50 1014.7
20260508002904 65 229 0.0 3.5 0.00 0.00 0.00 50 1014.8
20260508002825 65 228 0.0 3.5 0.00 0.00 0.00 50 1015.1
20260508002704 65 221 0.0 3.5 0.00 0.00 0.00 50 1015.4
20260508002625 65 221 0.0 3.5 0.00 0.00 0.00 50 1015.6
20260508002504 65 218 0.0 3.5 0.00 0.00 0.00 51 1015.7
20260508002404 65 211 0.0 3.5 0.00 0.00 0.00 51 1015.8
20260508002307 65 211 0.0 3.5 0.00 0.00 0.00 51 1015.7
20260508002204 65 211 0.0 3.5 0.00 0.00 0.00 51 1015.5
20260508002104 65 214 0.0 3.5 0.00 0.00 0.00 51 1015.3
20260508002004 65 218 0.0 7.8 0.00 0.00 0.00 51 1015.2
20260508001925 65 217 0.0 7.8 0.00 0.00 0.00 51 1015.3
20260508001804 66 216 0.0 7.8 0.00 0.00 0.00 51 1015.5
20260508001704 66 216 0.0 7.8 0.00 0.00 0.00 51 1015.7
20260508001604 66 216 0.0 7.8 0.00 0.00 0.00 51 1015.8
20260508001504 66 217 0.0 7.8 0.00 0.00 0.00 51 1015.8
20260508001404 66 218 0.0 7.8 0.00 0.00 0.00 51 1015.7
20260508001304 66 219 0.0 7.8 0.00 0.00 0.00 51 1015.5
20260508001225 66 219 0.0 7.8 0.00 0.00 0.00 51 1015.5
20260508001125 66 219 0.0 7.8 0.00 0.00 0.00 51 1015.5
20260508001004 66 0 0.0 0.9 0.00 0.00 0.00 51 1015.6
20260508000904 66 0 0.0 0.9 0.00 0.00 0.00 51 1015.7
20260508000804 66 0 0.0 0.9 0.00 0.00 0.00 51 1015.8
20260508000704 66 0 0.0 0.9 0.00 0.00 0.00 51 1015.8
20260508000625 66 0 0.0 0.9 0.00 0.00 0.00 51 1015.8
20260508000504 66 232 0.0 5.2 0.00 0.00 0.00 51 1015.6
20260508000405 66 234 0.0 6.1 0.00 0.00 0.00 51 1015.6
20260508000305 66 234 0.0 6.1 0.00 0.00 0.00 51 1015.7
20260508000205 66 234 0.0 6.1 0.00 0.00 0.00 51 1015.6
20260508000104 66 234 0.0 6.1 0.00 0.00 0.00 51 1015.7
20260508000025 66 234 0.0 6.1 0.00 0.00 0.00 51 1015.6
20260507235904 66 234 0.0 6.1 0.00 0.00 0.00 51 1015.5
20260507235825 66 234 0.0 6.1 0.00 0.00 0.00 51 1015.4
20260507235704 66 234 0.0 6.1 0.00 0.00 0.00 51 1015.3
20260507235625 66 234 0.0 6.1 0.00 0.00 0.00 51 1015.3
20260507235504 66 233 0.0 6.1 0.00 0.00 0.00 51 1015.4
20260507235404 66 0 0.0 0.0 0.00 0.00 0.00 51 1015.5
20260507235306 66 0 0.0 0.0 0.00 0.00 0.00 50 1015.7
20260507235204 66 0 0.0 0.0 0.00 0.00 0.00 51 1015.8
20260507235104 66 0 0.0 0.0 0.00 0.00 0.00 51 1015.8
20260507235004 66 0 0.0 0.0 0.00 0.00 0.00 51 1015.9
20260507234904 66 0 0.0 0.0 0.00 0.00 0.00 51 1015.8
20260507234804 66 0 0.0 0.0 0.00 0.00 0.00 51 1015.8
20260507234704 66 0 0.0 0.0 0.00 0.00 0.00 51 1015.7
20260507234604 66 0 0.0 0.0 0.00 0.00 0.00 51 1015.7
20260507234525 66 0 0.0 0.0 0.00 0.00 0.00 51 1015.7
20260507234404 66 0 0.0 0.0 0.00 0.00 0.00 51 1015.7
20260507234304 66 0 0.0 0.0 0.00 0.00 0.00 51 1015.8
20260507234204 66 0 0.0 0.0 0.00 0.00 0.00 50 1015.8
20260507234104 66 0 0.0 0.0 0.00 0.00 0.00 51 1015.8
20260507234004 66 0 0.0 0.0 0.00 0.00 0.00 51 1015.9
20260507233904 66 0 0.0 0.0 0.00 0.00 0.00 51 1015.9
20260507233804 66 0 0.0 0.0 0.00 0.00 0.00 50 1015.9
20260507233704 66 0 0.0 0.0 0.00 0.00 0.00 51 1015.8
20260507233604 66 0 0.0 0.0 0.00 0.00 0.00 51 1015.9
20260507233504 66 0 0.0 0.0 0.00 0.00 0.00 51 1015.8
20260507233425 66 0 0.0 0.0 0.00 0.00 0.00 51 1015.8
20260507233304 66 220 0.0 4.3 0.00 0.00 0.00 51 1015.8
20260507233204 66 219 0.9 5.2 0.00 0.00 0.00 51 1015.7
20260507233104 66 219 0.9 5.2 0.00 0.00 0.00 51 1015.8
20260507233004 66 219 0.9 5.2 0.00 0.00 0.00 51 1015.8
20260507232904 66 219 0.9 5.2 0.00 0.00 0.00 51 1015.8
20260507232804 66 219 0.9 5.2 0.00 0.00 0.00 51 1015.7
20260507232705 66 219 0.9 5.2 0.00 0.00 0.00 51 1015.6
20260507232604 66 219 0.9 5.2 0.00 0.00 0.00 51 1015.6
20260507232504 66 219 0.9 5.2 0.00 0.00 0.00 51 1015.5
20260507232404 66 219 0.9 5.2 0.00 0.00 0.00 51 1015.5
20260507232306 66 219 0.0 5.2 0.00 0.00 0.00 51 1015.5
20260507232204 66 0 0.0 0.9 0.00 0.00 0.00 51 1015.5
20260507232104 66 0 0.0 0.9 0.00 0.00 0.00 51 1015.7
20260507232004 66 0 0.0 0.9 0.00 0.00 0.00 51 1015.7
20260507231904 66 0 0.0 0.9 0.00 0.00 0.00 51 1015.7
20260507231804 66 0 0.0 0.9 0.00 0.00 0.00 51 1015.7
20260507231704 66 0 0.0 0.9 0.00 0.00 0.00 51 1015.7
20260507231604 66 0 0.0 0.0 0.00 0.00 0.00 51 1015.7
20260507231504 66 0 0.0 0.0 0.00 0.00 0.00 51 1015.8
20260507231404 66 0 0.0 0.0 0.00 0.00 0.00 51 1015.9
20260507231304 66 0 0.0 0.0 0.00 0.00 0.00 51 1016.0
20260507231204 66 0 0.0 0.0 0.00 0.00 0.00 51 1016.0
20260507231104 66 0 0.0 0.0 0.00 0.00 0.00 50 1016.0
20260507231004 66 0 0.0 0.0 0.00 0.00 0.00 50 1016.0
20260507230904 66 0 0.0 0.0 0.00 0.00 0.00 51 1015.9
20260507230805 66 0 0.0 0.0 0.00 0.00 0.00 51 1015.8
20260507230704 66 0 0.0 0.0 0.00 0.00 0.00 51 1015.8
20260507230625 66 0 0.0 0.0 0.00 0.00 0.00 51 1015.7
20260507230504 66 0 0.0 0.0 0.00 0.00 0.00 50 1015.7
20260507230404 66 0 0.0 0.0 0.00 0.00 0.00 50 1015.6
20260507230304 66 0 0.0 0.0 0.00 0.00 0.00 50 1015.6
20260507230204 66 0 0.0 0.0 0.00 0.00 0.00 50 1015.5
20260507230104 66 0 0.0 0.0 0.00 0.00 0.00 50 1015.5
20260507230004 66 0 0.0 0.0 0.00 0.00 0.00 51 1015.5
20260507225905 66 0 0.0 0.0 0.00 0.00 0.00 50 1015.5
20260507225804 66 0 0.0 0.0 0.00 0.00 0.00 51 1015.5
20260507225704 66 0 0.0 0.0 0.00 0.00 0.00 51 1015.5
20260507225604 66 0 0.0 0.0 0.00 0.00 0.00 51 1015.4
20260507225504 66 0 0.0 0.0 0.00 0.00 0.00 51 1015.5
20260507225425 66 182 0.9 4.3 0.00 0.00 0.00 51 1015.5
20260507225325 66 186 0.9 7.0 0.00 0.00 0.00 50 1015.5
20260507225225 66 185 0.9 7.0 0.00 0.00 0.00 50 1015.7
20260507225104 66 192 0.9 7.0 0.00 0.00 0.00 51 1015.7
20260507225025 66 192 0.9 7.0 0.00 0.00 0.00 51 1015.7
20260507224904 66 192 0.9 7.0 0.00 0.00 0.00 51 1015.7
20260507224804 66 192 0.9 7.0 0.00 0.00 0.00 51 1015.7
20260507224705 66 192 0.9 7.0 0.00 0.00 0.00 51 1015.8
20260507224604 66 192 0.9 7.0 0.00 0.00 0.00 51 1015.8
20260507224505 66 192 0.9 7.0 0.00 0.00 0.00 50 1015.9
20260507224404 66 197 0.9 7.0 0.00 0.00 0.00 50 1015.8
20260507224304 66 197 0.9 7.0 0.00 0.00 0.00 50 1015.7
20260507224204 66 202 0.0 5.2 0.00 0.00 0.00 50 1015.7
20260507224104 66 209 0.0 2.6 0.00 0.00 0.00 51 1015.8
20260507224004 66 197 0.0 2.6 0.00 0.00 0.00 50 1015.8
20260507223904 66 197 0.0 2.6 0.00 0.00 0.00 50 1015.9
20260507223804 66 197 0.0 2.6 0.00 0.00 0.00 50 1015.9
20260507223704 66 196 0.0 2.6 0.00 0.00 0.00 50 1016.1
20260507223604 66 196 0.0 2.6 0.00 0.00 0.00 50 1016.1
20260507223504 66 196 0.0 2.6 0.00 0.00 0.00 50 1016.2
20260507223425 66 196 0.0 2.6 0.00 0.00 0.00 50 1016.2
20260507223304 66 196 0.0 2.6 0.00 0.00 0.00 50 1016.3
20260507223225 66 194 0.0 2.6 0.00 0.00 0.00 50 1016.3
20260507223104 66 195 0.0 2.6 0.00 0.00 0.00 50 1016.3
20260507223004 66 196 0.0 2.6 0.00 0.00 0.00 50 1016.3
20260507222904 66 193 0.0 2.6 0.00 0.00 0.00 50 1016.3
20260507222804 66 197 0.0 5.2 0.00 0.00 0.00 50 1016.3
20260507222704 66 197 0.0 5.2 0.00 0.00 0.00 50 1016.3
20260507222604 66 186 0.0 5.2 0.00 0.00 0.00 50 1016.3
20260507222504 66 186 0.0 5.2 0.00 0.00 0.00 50 1016.3
20260507222404 66 186 0.0 5.2 0.00 0.00 0.00 50 1016.4
20260507222306 66 186 0.0 5.2 0.00 0.00 0.00 50 1016.4
20260507222225 66 186 0.0 5.2 0.00 0.00 0.00 50 1016.4
20260507222104 66 184 0.0 5.2 0.00 0.00 0.00 50 1016.3
20260507222004 66 184 0.0 5.2 0.00 0.00 0.00 50 1016.3
20260507221904 66 185 0.0 8.7 0.00 0.00 0.00 50 1016.3
20260507221804 66 180 0.0 8.7 0.00 0.00 0.00 50 1016.2
20260507221704 66 178 0.0 8.7 0.00 0.00 0.00 49 1016.2
20260507221605 66 178 0.0 8.7 0.00 0.00 0.00 50 1016.2
20260507221504 66 181 0.0 8.7 0.00 0.00 0.00 50 1016.2
20260507221404 66 177 0.0 8.7 0.00 0.00 0.00 49 1016.2
20260507221325 66 174 0.0 8.7 0.00 0.00 0.00 50 1016.2
20260507221204 66 171 0.9 8.7 0.00 0.00 0.00 49 1016.2
20260507221104 66 170 0.9 8.7 0.00 0.00 0.00 49 1016.3
20260507221004 66 172 0.9 8.7 0.00 0.00 0.00 49 1016.2
20260507220904 66 170 1.7 7.8 0.00 0.00 0.00 49 1016.2
20260507220804 66 167 1.7 7.8 0.00 0.00 0.00 50 1016.2
20260507220704 66 166 2.6 8.7 0.00 0.00 0.00 49 1016.1
20260507220625 66 169 2.6 8.7 0.00 0.00 0.00 50 1016.1
20260507220525 66 168 2.6 8.7 0.00 0.00 0.00 50 1016.1
20260507220404 66 168 2.6 8.7 0.00 0.00 0.00 49 1016.1
20260507220304 66 169 2.6 8.7 0.00 0.00 0.00 49 1016.1
20260507220204 66 170 2.6 8.7 0.00 0.00 0.00 49 1016.1
20260507220104 67 170 2.6 8.7 0.00 0.00 0.00 49 1016.1
20260507220025 67 171 1.7 8.7 0.00 0.00 0.00 49 1016.1
20260507215904 67 170 1.7 8.7 0.00 0.00 0.00 49 1016.0
20260507215804 67 174 0.9 8.7 0.00 0.00 0.00 49 1016.0
20260507215704 67 175 1.7 7.8 0.00 0.00 0.00 49 1016.0
20260507215604 67 165 1.7 11.3 0.00 0.00 0.00 49 1016.0
20260507215525 67 167 1.7 11.3 0.00 0.00 0.00 49 1016.0
20260507215404 67 162 2.6 11.3 0.00 0.00 0.00 49 1016.0
20260507215325 67 162 2.6 11.3 0.00 0.00 0.00 49 1016.0
20260507215204 67 161 2.6 11.3 0.00 0.00 0.00 49 1016.0
20260507215104 67 161 2.6 11.3 0.00 0.00 0.00 49 1016.0
20260507215004 67 161 2.6 11.3 0.00 0.00 0.00 49 1016.1
20260507214904 67 161 2.6 11.3 0.00 0.00 0.00 49 1016.2
20260507214804 67 161 2.6 11.3 0.00 0.00 0.00 49 1016.2
20260507214704 67 160 2.6 11.3 0.00 0.00 0.00 49 1016.3
20260507214604 67 162 1.7 9.6 0.00 0.00 0.00 49 1016.3
20260507214504 67 164 0.9 9.6 0.00 0.00 0.00 48 1016.2
20260507214404 67 171 0.9 8.7 0.00 0.00 0.00 49 1016.2
20260507214304 67 179 0.9 8.7 0.00 0.00 0.00 48 1016.1
20260507214204 67 196 0.9 6.1 0.00 0.00 0.00 48 1016.1
20260507214104 67 194 0.9 6.1 0.00 0.00 0.00 48 1016.1
20260507214004 67 192 0.9 6.1 0.00 0.00 0.00 48 1016.2
20260507213904 67 194 0.9 6.1 0.00 0.00 0.00 48 1016.1
20260507213804 67 192 0.9 6.1 0.00 0.00 0.00 48 1016.1
20260507213704 67 185 0.9 6.1 0.00 0.00 0.00 48 1016.1
20260507213605 67 185 0.9 6.1 0.00 0.00 0.00 48 1016.0
20260507213525 67 185 0.9 6.1 0.00 0.00 0.00 48 1015.9
20260507213404 67 183 0.9 6.1 0.00 0.00 0.00 47 1015.9
20260507213304 67 176 0.9 6.1 0.00 0.00 0.00 47 1015.8
20260507213204 67 170 0.9 7.0 0.00 0.00 0.00 47 1015.9
20260507213104 67 169 0.9 7.0 0.00 0.00 0.00 47 1015.9
20260507213025 67 169 0.9 7.0 0.00 0.00 0.00 47 1016.0
20260507212905 67 171 0.9 7.0 0.00 0.00 0.00 47 1016.1
20260507212804 67 168 0.9 7.0 0.00 0.00 0.00 48 1016.2
20260507212704 67 173 0.9 7.0 0.00 0.00 0.00 47 1016.1
20260507212625 67 171 0.9 7.0 0.00 0.00 0.00 47 1016.1
20260507212504 67 160 0.9 10.4 0.00 0.00 0.00 47 1016.0
20260507212404 67 160 0.9 10.4 0.00 0.00 0.00 47 1016.0
20260507212325 67 161 0.9 10.4 0.00 0.00 0.00 47 1015.9
20260507212225 66 165 0.9 10.4 0.00 0.00 0.00 47 1015.9
20260507212104 66 169 0.9 10.4 0.00 0.00 0.00 47 1015.8
20260507212025 66 172 0.9 10.4 0.00 0.00 0.00 47 1015.7
20260507211904 66 171 1.7 10.4 0.00 0.00 0.00 47 1015.7
20260507211825 66 170 1.7 10.4 0.00 0.00 0.00 47 1015.7
20260507211704 66 171 1.7 10.4 0.00 0.00 0.00 47 1015.7
20260507211604 66 170 1.7 9.6 0.00 0.00 0.00 47 1015.7
20260507211504 66 174 1.7 7.8 0.00 0.00 0.00 47 1015.7
20260507211404 66 177 1.7 7.8 0.00 0.00 0.00 47 1015.7
20260507211304 65 176 1.7 7.8 0.00 0.00 0.00 48 1015.8
20260507211204 65 174 1.7 7.8 0.00 0.00 0.00 47 1015.8
20260507211104 65 174 1.7 7.8 0.00 0.00 0.00 47 1015.8
20260507211004 65 172 1.7 7.8 0.00 0.00 0.00 47 1015.8
20260507210925 65 173 1.7 7.8 0.00 0.00 0.00 47 1015.9
20260507210825 65 175 1.7 7.8 0.00 0.00 0.00 47 1016.0
20260507210704 65 178 1.7 7.8 0.00 0.00 0.00 47 1016.0
20260507210604 65 179 1.7 7.8 0.00 0.00 0.00 47 1016.1
20260507210504 65 183 0.9 7.8 0.00 0.00 0.00 48 1016.2
20260507210404 65 183 0.9 5.2 0.00 0.00 0.00 47 1016.2
20260507210304 65 184 0.9 5.2 0.00 0.00 0.00 47 1016.3
20260507210204 65 187 0.9 5.2 0.00 0.00 0.00 47 1016.3
20260507210104 65 186 0.9 5.2 0.00 0.00 0.00 47 1016.3
20260507210005 65 186 0.9 5.2 0.00 0.00 0.00 48 1016.4
20260507205904 65 184 0.9 5.2 0.00 0.00 0.00 47 1016.3
20260507205804 65 183 0.9 5.2 0.00 0.00 0.00 48 1016.3
20260507205704 65 181 0.9 5.2 0.00 0.00 0.00 47 1016.3
20260507205604 65 181 0.0 5.2 0.00 0.00 0.00 48 1016.3
20260507205504 65 186 0.0 5.2 0.00 0.00 0.00 48 1016.3
20260507205404 65 188 0.0 5.2 0.00 0.00 0.00 47 1016.4
20260507205306 65 190 0.0 5.2 0.00 0.00 0.00 47 1016.4
20260507205225 65 196 0.0 2.6 0.00 0.00 0.00 47 1016.5
20260507205125 65 189 0.0 2.6 0.00 0.00 0.00 47 1016.6
20260507205004 65 171 0.0 6.1 0.00 0.00 0.00 47 1016.7
20260507204904 65 171 0.0 6.1 0.00 0.00 0.00 47 1016.8
20260507204825 65 171 0.0 6.1 0.00 0.00 0.00 47 1016.9
20260507204704 65 169 0.0 6.1 0.00 0.00 0.00 47 1016.9
20260507204604 65 171 0.0 6.1 0.00 0.00 0.00 47 1017.0
20260507204505 65 170 0.0 6.1 0.00 0.00 0.00 47 1017.1
20260507204404 65 166 0.0 6.1 0.00 0.00 0.00 47 1017.1
20260507204304 65 166 0.0 6.1 0.00 0.00 0.00 47 1017.1
20260507204204 65 166 0.0 6.1 0.00 0.00 0.00 47 1017.1
20260507204104 65 166 0.0 6.1 0.00 0.00 0.00 47 1017.1
20260507204025 65 178 0.0 6.1 0.00 0.00 0.00 47 1017.1
20260507203904 65 197 0.0 3.5 0.00 0.00 0.00 47 1017.2
20260507203804 65 197 0.0 3.5 0.00 0.00 0.00 47 1017.2
20260507203705 65 201 0.0 3.5 0.00 0.00 0.00 46 1017.2
20260507203604 65 198 0.0 3.5 0.00 0.00 0.00 47 1017.1
20260507203504 65 196 0.0 3.5 0.00 0.00 0.00 46 1017.0
20260507203404 65 196 0.0 3.5 0.00 0.00 0.00 47 1017.1
20260507203304 65 196 0.0 3.5 0.00 0.00 0.00 47 1017.0
20260507203204 65 196 0.0 3.5 0.00 0.00 0.00 47 1017.0
20260507203104 65 200 0.0 3.5 0.00 0.00 0.00 46 1017.0
20260507203004 65 186 0.0 2.6 0.00 0.00 0.00 46 1016.9
20260507202904 65 198 0.0 2.6 0.00 0.00 0.00 46 1016.9
20260507202804 65 200 0.0 2.6 0.00 0.00 0.00 46 1016.9
20260507202704 65 202 0.0 2.6 0.00 0.00 0.00 46 1017.0
20260507202604 65 207 0.0 2.6 0.00 0.00 0.00 46 1017.0
20260507202525 65 204 0.0 2.6 0.00 0.00 0.00 46 1016.9
20260507202404 65 194 0.0 5.2 0.00 0.00 0.00 46 1016.9
20260507202325 65 196 0.0 5.2 0.00 0.00 0.00 46 1016.9
20260507202204 65 196 0.0 5.2 0.00 0.00 0.00 47 1016.9
20260507202104 65 196 0.0 5.2 0.00 0.00 0.00 46 1016.9
20260507202004 65 195 0.0 5.2 0.00 0.00 0.00 46 1016.9
20260507201925 65 190 0.0 5.2 0.00 0.00 0.00 46 1017.0
20260507201804 65 190 0.0 5.2 0.00 0.00 0.00 46 1017.0
20260507201725 65 188 0.0 5.2 0.00 0.00 0.00 46 1016.9
20260507201625 65 187 0.0 5.2 0.00 0.00 0.00 46 1017.0
20260507201504 65 190 0.0 5.2 0.00 0.00 0.00 46 1017.0
20260507201426 65 193 0.0 4.3 0.00 0.00 0.00 46 1017.0
20260507201304 65 198 0.0 4.3 0.00 0.00 0.00 46 1017.0
20260507201204 65 198 0.0 4.3 0.00 0.00 0.00 46 1016.9
20260507201104 65 196 0.0 6.1 0.00 0.00 0.00 46 1016.9
20260507201004 65 196 0.0 6.1 0.00 0.00 0.00 46 1016.9
20260507200904 65 195 0.0 6.1 0.00 0.00 0.00 46 1016.8
20260507200804 65 211 0.0 6.1 0.00 0.00 0.00 46 1016.9
20260507200725 65 213 0.0 6.1 0.00 0.00 0.00 46 1017.0
20260507200604 65 200 0.0 6.1 0.00 0.00 0.00 45 1017.1
20260507200504 65 198 0.0 6.1 0.00 0.00 0.00 45 1017.2
20260507200404 65 190 0.0 6.1 0.00 0.00 0.00 45 1017.3
20260507200304 65 191 0.0 6.1 0.00 0.00 0.00 45 1017.4
20260507200204 64 193 0.9 6.1 0.00 0.00 0.00 45 1017.4
20260507200125 64 192 0.9 6.1 0.00 0.00 0.00 46 1017.5
20260507200004 64 192 0.9 6.1 0.00 0.00 0.00 46 1017.4
20260507195904 64 191 0.9 6.1 0.00 0.00 0.00 45 1017.5
20260507195804 64 189 0.9 6.1 0.00 0.00 0.00 45 1017.5
20260507195704 64 188 0.9 6.1 0.00 0.00 0.00 46 1017.5
20260507195604 64 189 0.9 6.1 0.00 0.00 0.00 45 1017.3
20260507195504 64 189 0.9 6.1 0.00 0.00 0.00 45 1017.3
20260507195404 64 189 0.9 6.1 0.00 0.00 0.00 45 1017.3
20260507195306 64 189 0.9 6.1 0.00 0.00 0.00 45 1017.3
20260507195225 64 190 0.9 6.1 0.00 0.00 0.00 45 1017.3
20260507195104 64 190 0.9 6.1 0.00 0.00 0.00 44 1017.2
20260507195004 64 189 0.9 6.1 0.00 0.00 0.00 44 1017.2
20260507194904 64 191 0.0 6.1 0.00 0.00 0.00 44 1017.1
20260507194804 64 192 0.0 6.1 0.00 0.00 0.00 44 1017.1
20260507194725 64 195 0.0 6.1 0.00 0.00 0.00 44 1017.2
20260507194604 64 200 0.0 6.1 0.00 0.00 0.00 44 1017.1
20260507194525 64 193 0.0 6.1 0.00 0.00 0.00 44 1017.1
20260507194404 64 196 0.0 6.1 0.00 0.00 0.00 44 1017.2
20260507194325 64 199 0.0 6.1 0.00 0.00 0.00 44 1017.2
20260507194204 64 192 0.0 3.5 0.00 0.00 0.00 44 1017.2
20260507194125 64 192 0.0 3.5 0.00 0.00 0.00 44 1017.2
20260507194025 64 191 0.0 3.5 0.00 0.00 0.00 44 1017.2
20260507193904 64 192 0.0 3.5 0.00 0.00 0.00 44 1017.2
20260507193825 64 191 0.0 3.5 0.00 0.00 0.00 43 1017.3
20260507193704 64 179 0.0 3.5 0.00 0.00 0.00 43 1017.3
20260507193604 64 179 0.0 3.5 0.00 0.00 0.00 43 1017.3
20260507193504 64 194 0.0 2.6 0.00 0.00 0.00 43 1017.3
20260507193404 64 194 0.0 2.6 0.00 0.00 0.00 43 1017.3
20260507193304 64 194 0.0 2.6 0.00 0.00 0.00 43 1017.4
20260507193204 64 194 0.0 2.6 0.00 0.00 0.00 43 1017.4
20260507193104 64 209 0.0 0.9 0.00 0.00 0.00 43 1017.4
20260507193004 65 213 0.0 0.9 0.00 0.00 0.00 42 1017.4
20260507192904 64 220 0.0 6.1 0.00 0.00 0.00 42 1017.5
20260507192804 64 219 0.0 8.7 0.00 0.00 0.00 42 1017.5
20260507192704 64 213 0.9 8.7 0.00 0.00 0.00 42 1017.6
20260507192625 64 204 0.9 8.7 0.00 0.00 0.00 43 1017.8
20260507192504 64 196 1.7 8.7 0.00 0.00 0.00 42 1017.7
20260507192404 64 196 1.7 8.7 0.00 0.00 0.00 42 1017.7
20260507192306 64 191 2.6 8.7 0.00 0.00 0.00 43 1017.6
20260507192225 64 191 2.6 8.7 0.00 0.00 0.00 43 1017.6
20260507192104 64 192 2.6 8.7 0.00 0.00 0.00 43 1017.5
20260507192025 64 193 3.5 8.7 0.00 0.00 0.00 43 1017.4
20260507191925 64 198 3.5 8.7 0.00 0.00 0.00 43 1017.3
20260507191804 64 198 3.5 8.7 0.00 0.00 0.00 43 1017.4
20260507191725 64 197 3.5 8.7 0.00 0.00 0.00 43 1017.3
20260507191604 64 200 3.5 8.7 0.00 0.00 0.00 43 1017.4
20260507191504 64 204 4.3 8.7 0.00 0.00 0.00 43 1017.5
20260507191425 64 207 4.3 8.7 0.00 0.00 0.00 43 1017.6
20260507191304 64 212 4.3 9.6 0.00 0.00 0.00 42 1017.7
20260507191225 64 213 4.3 9.6 0.00 0.00 0.00 42 1017.7
20260507191104 64 216 5.2 11.3 0.00 0.00 0.00 43 1017.7
20260507191025 64 214 5.2 11.3 0.00 0.00 0.00 42 1017.7
20260507190904 64 211 5.2 11.3 0.00 0.00 0.00 42 1017.6
20260507190825 64 211 5.2 11.3 0.00 0.00 0.00 43 1017.5
20260507190705 64 210 6.1 11.3 0.00 0.00 0.00 43 1017.4
20260507190604 64 209 6.1 11.3 0.00 0.00 0.00 43 1017.3
20260507190504 64 208 5.2 11.3 0.00 0.00 0.00 43 1017.4
20260507190404 64 210 5.2 11.3 0.00 0.00 0.00 43 1017.4
20260507190304 64 209 5.2 11.3 0.00 0.00 0.00 43 1017.5
20260507190204 64 210 5.2 11.3 0.00 0.00 0.00 43 1017.7
20260507190104 64 210 5.2 9.6 0.00 0.00 0.00 43 1017.8
20260507190005 64 211 5.2 9.6 0.00 0.00 0.00 42 1017.9
20260507185925 64 210 4.3 9.6 0.00 0.00 0.00 42 1018.0
20260507185804 64 206 4.3 9.6 0.00 0.00 0.00 42 1017.9
20260507185704 64 207 4.3 9.6 0.00 0.00 0.00 42 1017.9
20260507185604 64 205 4.3 8.7 0.00 0.00 0.00 41 1017.8
20260507185525 64 204 4.3 8.7 0.00 0.00 0.00 41 1017.7
20260507185404 64 201 4.3 8.7 0.00 0.00 0.00 42 1017.7
20260507185306 64 201 4.3 8.7 0.00 0.00 0.00 42 1017.8
20260507185204 64 200 4.3 8.7 0.00 0.00 0.00 42 1017.8
20260507185104 64 198 4.3 8.7 0.00 0.00 0.00 42 1017.9
20260507185004 64 196 5.2 8.7 0.00 0.00 0.00 41 1017.9
20260507184904 64 199 5.2 8.7 0.00 0.00 0.00 42 1017.9
20260507184804 64 201 5.2 8.7 0.00 0.00 0.00 42 1017.9
20260507184704 64 202 5.2 9.6 0.00 0.00 0.00 42 1017.9
20260507184604 64 205 5.2 9.6 0.00 0.00 0.00 42 1018.0
20260507184504 64 206 5.2 9.6 0.00 0.00 0.00 42 1018.0
20260507184404 64 204 5.2 9.6 0.00 0.00 0.00 42 1018.0
20260507184304 64 204 5.2 9.6 0.00 0.00 0.00 42 1018.1
20260507184204 64 203 4.3 9.6 0.00 0.00 0.00 42 1018.1
20260507184104 64 203 4.3 9.6 0.00 0.00 0.00 41 1018.1
20260507184025 64 207 4.3 9.6 0.00 0.00 0.00 42 1018.1
20260507183904 64 208 4.3 9.6 0.00 0.00 0.00 41 1018.2
20260507183804 64 205 4.3 9.6 0.00 0.00 0.00 41 1018.1
20260507183704 64 200 5.2 11.3 0.00 0.00 0.00 41 1018.1
20260507183625 64 198 5.2 11.3 0.00 0.00 0.00 41 1018.1
20260507183504 64 198 5.2 11.3 0.00 0.00 0.00 40 1018.1
20260507183425 64 198 5.2 11.3 0.00 0.00 0.00 40 1018.1
20260507183304 64 198 5.2 11.3 0.00 0.00 0.00 40 1018.1
20260507183204 64 199 5.2 11.3 0.00 0.00 0.00 40 1018.1
20260507183104 64 197 5.2 12.2 0.00 0.00 0.00 40 1018.0
20260507183004 64 195 5.2 12.2 0.00 0.00 0.00 40 1018.1
20260507182904 64 194 6.1 12.2 0.00 0.00 0.00 40 1018.0
20260507182804 64 194 5.2 12.2 0.00 0.00 0.00 40 1018.0
20260507182704 64 197 4.3 12.2 0.00 0.00 0.00 39 1017.9
20260507182604 64 198 4.3 12.2 0.00 0.00 0.00 38 1017.9
20260507182504 64 197 3.5 12.2 0.00 0.00 0.00 38 1017.9
20260507182404 64 196 3.5 12.2 0.00 0.00 0.00 38 1017.9
20260507182306 64 194 2.6 12.2 0.00 0.00 0.00 38 1017.9
20260507182204 64 188 2.6 12.2 0.00 0.00 0.00 38 1018.0
20260507182104 64 188 1.7 11.3 0.00 0.00 0.00 38 1018.0
20260507182004 64 189 0.9 11.3 0.00 0.00 0.00 38 1018.0
20260507181904 64 184 0.9 11.3 0.00 0.00 0.00 38 1018.0
20260507181804 64 201 0.9 6.1 0.00 0.00 0.00 38 1018.1
20260507181704 64 198 0.0 6.1 0.00 0.00 0.00 36 1018.2
20260507181625 64 199 0.9 6.1 0.00 0.00 0.00 37 1018.2
20260507181504 63 204 0.9 7.8 0.00 0.00 0.00 36 1018.3
20260507181425 63 205 0.9 7.8 0.00 0.00 0.00 36 1018.2
20260507181304 63 205 0.9 7.8 0.00 0.00 0.00 37 1018.2
20260507181225 63 205 0.9 7.8 0.00 0.00 0.00 37 1018.0
20260507181104 63 205 0.9 7.8 0.00 0.00 0.00 37 1018.0
20260507181004 63 204 0.9 7.8 0.00 0.00 0.00 37 1018.0
20260507180904 63 205 0.9 7.8 0.00 0.00 0.00 37 1017.9
20260507180804 63 205 0.9 7.8 0.00 0.00 0.00 36 1017.8
20260507180704 63 208 0.9 7.8 0.00 0.00 0.00 36 1017.8
20260507180604 63 208 0.9 7.8 0.00 0.00 0.00 37 1017.7
20260507180504 63 206 0.9 6.1 0.00 0.00 0.00 37 1017.8
20260507180404 63 204 0.9 6.1 0.00 0.00 0.00 37 1017.8
20260507180304 63 205 0.9 6.1 0.00 0.00 0.00 36 1017.8
20260507180204 63 206 0.9 6.1 0.00 0.00 0.00 36 1017.7
20260507180104 63 204 0.9 6.1 0.00 0.00 0.00 37 1017.7
20260507180004 63 205 0.9 6.1 0.00 0.00 0.00 37 1017.7
20260507175925 63 205 0.9 6.1 0.00 0.00 0.00 37 1017.7
20260507175804 63 204 0.0 4.3 0.00 0.00 0.00 36 1017.7
20260507175726 63 204 0.0 4.3 0.00 0.00 0.00 36 1017.8
20260507175625 63 210 0.0 4.3 0.00 0.00 0.00 36 1017.8
20260507175504 63 212 0.0 4.3 0.00 0.00 0.00 34 1017.9
20260507175404 63 219 0.0 2.6 0.00 0.00 0.00 34 1017.9
20260507175307 63 216 0.0 2.6 0.00 0.00 0.00 34 1018.0
20260507175204 63 218 0.0 3.5 0.00 0.00 0.00 34 1018.0
20260507175104 63 220 0.0 7.0 0.00 0.00 0.00 33 1018.1
20260507175025 63 221 0.0 7.0 0.00 0.00 0.00 33 1018.1
20260507174904 63 221 0.0 7.0 0.00 0.00 0.00 34 1018.1
20260507174825 63 220 0.0 7.0 0.00 0.00 0.00 33 1018.1
20260507174704 62 221 0.9 7.0 0.00 0.00 0.00 34 1018.0
20260507174604 62 219 0.9 7.0 0.00 0.00 0.00 33 1018.1
20260507174504 62 220 0.9 7.0 0.00 0.00 0.00 34 1018.1
20260507174405 62 219 0.9 7.0 0.00 0.00 0.00 34 1018.1
20260507174304 62 219 0.9 7.0 0.00 0.00 0.00 35 1018.0
20260507174204 62 219 0.0 7.0 0.00 0.00 0.00 34 1018.0
20260507174104 62 219 0.0 6.1 0.00 0.00 0.00 34 1018.0
20260507174004 62 219 0.0 6.1 0.00 0.00 0.00 34 1017.8
20260507173904 62 218 0.9 5.2 0.00 0.00 0.00 33 1017.8
20260507173804 62 217 0.9 7.0 0.00 0.00 0.00 34 1017.9
20260507173704 62 215 0.0 7.0 0.00 0.00 0.00 33 1018.1
20260507173604 62 216 0.0 7.0 0.00 0.00 0.00 32 1018.2
20260507173525 62 216 0.0 7.0 0.00 0.00 0.00 33 1018.2
20260507173404 62 218 0.0 7.0 0.00 0.00 0.00 33 1018.2
20260507173304 62 217 0.0 7.0 0.00 0.00 0.00 33 1018.2
20260507173204 62 218 0.0 7.0 0.00 0.00 0.00 34 1018.2
20260507173125 62 215 0.0 7.0 0.00 0.00 0.00 34 1018.2
20260507173004 62 214 0.0 7.0 0.00 0.00 0.00 33 1018.2
20260507172904 62 211 0.0 7.0 0.00 0.00 0.00 31 1018.1
20260507172804 62 221 0.0 4.3 0.00 0.00 0.00 31 1017.9
20260507172725 62 220 0.0 4.3 0.00 0.00 0.00 31 1017.8
20260507172604 62 214 0.0 4.3 0.00 0.00 0.00 32 1017.8
20260507172504 62 219 0.0 4.3 0.00 0.00 0.00 32 1017.8
20260507172404 62 222 0.0 4.3 0.00 0.00 0.00 33 1018.0
20260507172307 62 227 0.0 4.3 0.00 0.00 0.00 34 1018.2
20260507172204 62 227 0.0 4.3 0.00 0.00 0.00 33 1018.2
20260507172104 62 218 0.0 10.4 0.00 0.00 0.00 32 1018.1
20260507172004 62 217 0.0 10.4 0.00 0.00 0.00 33 1018.0
20260507171904 62 215 0.9 10.4 0.00 0.00 0.00 33 1017.9
20260507171804 62 202 0.9 10.4 0.00 0.00 0.00 33 1018.0
20260507171704 62 201 0.9 10.4 0.00 0.00 0.00 32 1018.0
20260507171604 62 200 0.9 10.4 0.00 0.00 0.00 32 1018.0
20260507171504 62 196 0.9 10.4 0.00 0.00 0.00 32 1017.9
20260507171404 62 195 0.9 10.4 0.00 0.00 0.00 32 1017.8
20260507171304 62 191 0.9 10.4 0.00 0.00 0.00 33 1018.0
20260507171204 62 192 0.9 10.4 0.00 0.00 0.00 32 1018.2
20260507171104 62 191 0.0 10.4 0.00 0.00 0.00 32 1018.4
20260507171004 62 183 0.0 6.1 0.00 0.00 0.00 32 1018.7
20260507170904 62 180 0.0 6.1 0.00 0.00 0.00 32 1018.8
20260507170804 62 203 0.0 3.5 0.00 0.00 0.00 31 1018.8
20260507170704 62 205 0.0 3.5 0.00 0.00 0.00 31 1018.8
20260507170604 62 202 0.0 3.5 0.00 0.00 0.00 31 1018.7
20260507170504 62 205 0.0 5.2 0.00 0.00 0.00 32 1018.6
20260507170404 62 203 0.0 5.2 0.00 0.00 0.00 31 1018.6
20260507170304 62 202 0.0 5.2 0.00 0.00 0.00 30 1018.5
20260507170204 62 211 0.9 9.6 0.00 0.00 0.00 30 1018.5
20260507170104 62 215 0.9 9.6 0.00 0.00 0.00 30 1018.6
20260507170025 62 215 0.9 9.6 0.00 0.00 0.00 29 1018.5
20260507165904 62 214 0.9 9.6 0.00 0.00 0.00 30 1018.4
20260507165804 62 213 0.9 9.6 0.00 0.00 0.00 30 1018.5
20260507165704 62 210 1.7 9.6 0.00 0.00 0.00 29 1018.5
20260507165604 62 209 1.7 9.6 0.00 0.00 0.00 29 1018.5
20260507165525 61 209 1.7 9.6 0.00 0.00 0.00 29 1018.4
20260507165425 61 210 1.7 9.6 0.00 0.00 0.00 29 1018.2
20260507165306 61 209 1.7 9.6 0.00 0.00 0.00 29 1018.0
20260507165204 61 205 0.9 9.6 0.00 0.00 0.00 28 1018.0
20260507165104 61 202 0.9 9.6 0.00 0.00 0.00 28 1018.0
20260507165004 61 202 0.9 9.6 0.00 0.00 0.00 28 1018.1
20260507164904 61 194 0.9 7.8 0.00 0.00 0.00 28 1018.2
20260507164825 61 194 0.9 7.8 0.00 0.00 0.00 28 1018.3
20260507164704 61 194 0.9 7.8 0.00 0.00 0.00 24 1018.3
20260507164605 61 194 0.9 7.0 0.00 0.00 0.00 24 1018.2
20260507164504 61 194 0.9 7.0 0.00 0.00 0.00 23 1018.2
20260507164404 61 193 0.9 7.0 0.00 0.00 0.00 23 1018.2
20260507164304 60 193 0.9 7.0 0.00 0.00 0.00 22 1018.4
20260507164225 60 193 0.9 7.0 0.00 0.00 0.00 23 1018.6
20260507164104 60 190 0.9 7.0 0.00 0.00 0.00 23 1018.8
20260507164004 60 191 0.9 7.0 0.00 0.00 0.00 23 1018.9
20260507163904 60 186 0.9 7.0 0.00 0.00 0.00 23 1018.9